KC5DAQ-26 Weather Reports


Display with metric or nautical units.
time (UTC)temp
F
wind
direction
speed
MPH
gust
MPH
rain 1hr
in
rain 24hr
in
rain mn
in
humidity
%
barometer
mb
20220704035302 83 200 1.0 5.0 0.00 0.00 0.00 83 1021.0
20220704035203 83 200 1.0 5.0 0.00 0.00 0.00 83 1020.9
20220704035103 83 131 2.0 5.0 0.00 0.00 0.00 83 1020.9
20220704035003 83 28 1.0 5.0 0.00 0.00 0.00 83 1020.9
20220704034903 83 180 1.0 5.0 0.00 0.00 0.00 83 1020.9
20220704034802 83 180 0.0 5.0 0.00 0.00 0.00 83 1020.9
20220704034703 83 134 1.0 5.0 0.00 0.00 0.00 83 1020.9
20220704034602 83 134 2.0 5.0 0.00 0.00 0.00 83 1020.9
20220704034504 83 137 3.0 5.0 0.00 0.00 0.00 83 1020.8
20220704034402 83 144 2.0 4.0 0.00 0.00 0.00 83 1020.9
20220704034303 83 171 1.0 4.0 0.00 0.00 0.00 83 1020.8
20220704034204 83 168 0.0 4.0 0.00 0.00 0.00 83 1020.9
20220704034103 83 168 1.0 4.0 0.00 0.00 0.00 83 1020.9
20220704034003 83 199 1.0 4.0 0.00 0.00 0.00 82 1020.9
20220704033903 83 199 2.0 4.0 0.00 0.00 0.00 83 1020.9
20220704033802 83 123 2.0 4.0 0.00 0.00 0.00 83 1020.8
20220704033704 83 345 1.0 3.0 0.00 0.00 0.00 83 1020.7
20220704033602 83 319 1.0 3.0 0.00 0.00 0.00 82 1020.7
20220704033506 83 157 2.0 3.0 0.00 0.00 0.00 82 1020.7
20220704033403 83 157 2.0 3.0 0.00 0.00 0.00 82 1020.7
20220704033307 83 61 1.0 3.0 0.00 0.00 0.00 82 1020.7
20220704033203 83 144 1.0 2.0 0.00 0.00 0.00 82 1020.7
20220704033103 83 161 1.0 2.0 0.00 0.00 0.00 82 1020.7
20220704033002 83 161 1.0 2.0 0.00 0.00 0.00 82 1020.6
20220704032903 83 152 0.0 2.0 0.00 0.00 0.00 82 1020.7
20220704032802 83 152 1.0 2.0 0.00 0.00 0.00 82 1020.7
20220704032703 83 152 1.0 2.0 0.00 0.00 0.00 82 1020.7
20220704032602 83 166 0.0 2.0 0.00 0.00 0.00 82 1020.6
20220704032504 84 166 1.0 2.0 0.00 0.00 0.00 82 1020.7
20220704032405 84 165 1.0 2.0 0.00 0.00 0.00 82 1020.6
20220704032304 84 226 0.0 2.0 0.00 0.00 0.00 81 1020.6
20220704032204 84 226 0.0 2.0 0.00 0.00 0.00 81 1020.6
20220704032101 84 226 1.0 2.0 0.00 0.00 0.00 81 1020.6
20220704032003 84 193 0.0 2.0 0.00 0.00 0.00 81 1020.6
20220704031904 84 193 1.0 2.0 0.00 0.00 0.00 81 1020.6
20220704031802 84 193 1.0 2.0 0.00 0.00 0.00 81 1020.6
20220704031706 84 144 1.0 2.0 0.00 0.00 0.00 81 1020.6
20220704031602 84 192 1.0 2.0 0.00 0.00 0.00 81 1020.5
20220704031504 84 192 1.0 2.0 0.00 0.00 0.00 81 1020.4
20220704031401 84 192 0.0 2.0 0.00 0.00 0.00 81 1020.4
20220704031306 84 142 0.0 2.0 0.00 0.00 0.00 81 1020.4
20220704031202 84 140 0.0 2.0 0.00 0.00 0.00 81 1020.4
20220704031103 84 94 1.0 2.0 0.00 0.00 0.00 80 1020.4
20220704031002 84 94 1.0 2.0 0.00 0.00 0.00 80 1020.4
20220704030903 84 94 1.0 2.0 0.00 0.00 0.00 80 1020.2
20220704030803 84 140 1.0 2.0 0.00 0.00 0.00 80 1020.2
20220704030703 84 135 0.0 3.0 0.00 0.00 0.00 80 1020.2
20220704030603 84 131 0.0 3.0 0.00 0.00 0.00 80 1020.2
20220704030506 84 131 0.0 3.0 0.00 0.00 0.00 80 1020.2
20220704030404 84 128 1.0 3.0 0.00 0.00 0.00 80 1020.1
20220704030303 84 128 1.0 3.0 0.00 0.00 0.00 79 1020.2
20220704030203 84 114 1.0 3.0 0.00 0.00 0.00 79 1020.2
20220704030103 84 114 0.0 4.0 0.00 0.00 0.00 79 1020.2
20220704030003 84 116 1.0 4.0 0.00 0.00 0.00 79 1020.2
20220704025903 84 116 1.0 4.0 0.00 0.00 0.00 79 1020.2
20220704025804 84 200 1.0 4.0 0.00 0.00 0.00 79 1020.2
20220704025703 84 138 1.0 5.0 0.00 0.00 0.00 79 1020.2
20220704025602 84 144 0.0 5.0 0.00 0.00 0.00 79 1020.2
20220704025504 84 144 1.0 5.0 0.00 0.00 0.00 79 1020.2
20220704025404 84 144 1.0 5.0 0.00 0.00 0.00 79 1020.2
20220704025302 84 144 2.0 5.0 0.00 0.00 0.00 79 1020.1
20220704025203 84 144 1.0 5.0 0.00 0.00 0.00 79 1020.1
20220704025102 84 61 1.0 5.0 0.00 0.00 0.00 79 1020.0
20220704025004 84 138 1.0 5.0 0.00 0.00 0.00 79 1020.1
20220704024904 84 195 2.0 5.0 0.00 0.00 0.00 78 1020.1
20220704024802 85 141 2.0 5.0 0.00 0.00 0.00 78 1020.1
20220704024703 85 121 1.0 4.0 0.00 0.00 0.00 78 1020.1
20220704024601 85 133 1.0 4.0 0.00 0.00 0.00 78 1020.1
20220704024503 85 164 1.0 4.0 0.00 0.00 0.00 78 1020.1
20220704024404 85 10 1.0 4.0 0.00 0.00 0.00 78 1020.0
20220704024303 85 83 1.0 4.0 0.00 0.00 0.00 78 1020.0
20220704024203 85 66 1.0 4.0 0.00 0.00 0.00 78 1019.8
20220704024103 85 158 2.0 4.0 0.00 0.00 0.00 77 1019.9
20220704024004 85 155 2.0 4.0 0.00 0.00 0.00 77 1019.9
20220704023904 85 125 1.0 3.0 0.00 0.00 0.00 77 1019.9
20220704023802 85 125 1.0 3.0 0.00 0.00 0.00 77 1019.8
20220704023706 85 124 1.0 3.0 0.00 0.00 0.00 77 1019.9
20220704023602 85 125 1.0 3.0 0.00 0.00 0.00 78 1019.9
20220704023503 85 180 1.0 3.0 0.00 0.00 0.00 78 1020.0
20220704023402 85 183 1.0 4.0 0.00 0.00 0.00 78 1019.9
20220704023304 85 148 1.0 4.0 0.00 0.00 0.00 77 1020.0
20220704023204 85 149 2.0 4.0 0.00 0.00 0.00 77 1019.9
20220704023103 85 120 1.0 4.0 0.00 0.00 0.00 78 1019.9
20220704023004 85 120 1.0 4.0 0.00 0.00 0.00 78 1019.9
20220704022909 85 123 1.0 4.0 0.00 0.00 0.00 77 1019.9
20220704022803 85 123 1.0 4.0 0.00 0.00 0.00 77 1019.9
20220704022702 85 278 1.0 4.0 0.00 0.00 0.00 77 1019.9
20220704022602 85 140 1.0 4.0 0.00 0.00 0.00 77 1019.9
20220704022503 85 140 2.0 4.0 0.00 0.00 0.00 77 1019.8
20220704022403 85 141 1.0 4.0 0.00 0.00 0.00 77 1019.8
20220704022303 85 18 2.0 4.0 0.00 0.00 0.00 77 1019.8
20220704022202 85 10 2.0 4.0 0.00 0.00 0.00 77 1019.8
20220704022103 85 155 1.0 4.0 0.00 0.00 0.00 77 1019.8
20220704022003 85 134 2.0 4.0 0.00 0.00 0.00 77 1019.8
20220704021911 85 164 1.0 4.0 0.00 0.00 0.00 76 1019.8
20220704021802 85 83 1.0 4.0 0.00 0.00 0.00 76 1019.8
20220704021702 85 104 1.0 4.0 0.00 0.00 0.00 76 1019.8
20220704021603 85 113 1.0 4.0 0.00 0.00 0.00 76 1019.8
20220704021503 85 56 1.0 4.0 0.00 0.00 0.00 76 1019.8
20220704021403 85 141 0.0 4.0 0.00 0.00 0.00 76 1019.7
20220704021304 85 141 1.0 4.0 0.00 0.00 0.00 76 1019.7
20220704021206 85 141 1.0 4.0 0.00 0.00 0.00 76 1019.6
20220704021102 85 0 1.0 4.0 0.00 0.00 0.00 75 1019.6
20220704021003 86 0 1.0 6.0 0.00 0.00 0.00 75 1019.6
20220704020902 86 134 2.0 6.0 0.00 0.00 0.00 75 1019.6
20220704020803 86 134 2.0 6.0 0.00 0.00 0.00 74 1019.6
20220704020702 86 154 1.0 6.0 0.00 0.00 0.00 74 1019.7
20220704020603 86 151 2.0 6.0 0.00 0.00 0.00 74 1019.7
20220704020502 86 151 2.0 6.0 0.00 0.00 0.00 74 1019.7
20220704020403 86 54 1.0 6.0 0.00 0.00 0.00 74 1019.6
20220704020304 86 123 1.0 6.0 0.00 0.00 0.00 74 1019.7
20220704020202 86 125 2.0 6.0 0.00 0.00 0.00 74 1019.7
20220704020103 86 134 3.0 6.0 0.00 0.00 0.00 74 1019.7
20220704020002 86 141 1.0 4.0 0.00 0.00 0.00 74 1019.6
20220704015902 86 59 1.0 4.0 0.00 0.00 0.00 73 1019.6
20220704015807 86 59 2.0 4.0 0.00 0.00 0.00 73 1019.6
20220704015706 86 124 2.0 4.0 0.00 0.00 0.00 73 1019.7
20220704015603 86 141 2.0 4.0 0.00 0.00 0.00 73 1019.6
20220704015502 86 148 2.0 4.0 0.00 0.00 0.00 73 1019.6
20220704015402 86 99 2.0 4.0 0.00 0.00 0.00 73 1019.5
20220704015302 86 113 2.0 4.0 0.00 0.00 0.00 73 1019.6
20220704015204 86 111 2.0 4.0 0.00 0.00 0.00 73 1019.5
20220704015103 86 103 2.0 4.0 0.00 0.00 0.00 72 1019.6
20220704015004 86 171 2.0 5.0 0.00 0.00 0.00 72 1019.6
20220704014903 86 154 2.0 5.0 0.00 0.00 0.00 72 1019.6
20220704014804 86 159 1.0 5.0 0.00 0.00 0.00 72 1019.6
20220704014703 86 269 2.0 5.0 0.00 0.00 0.00 72 1019.6
20220704014604 86 0 1.0 5.0 0.00 0.00 0.00 72 1019.4
20220704014504 86 118 1.0 5.0 0.00 0.00 0.00 71 1019.4
20220704014402 86 124 1.0 5.0 0.00 0.00 0.00 71 1019.3
20220704014302 87 124 2.0 5.0 0.00 0.00 0.00 71 1019.3
20220704014204 87 102 2.0 5.0 0.00 0.00 0.00 71 1019.4
20220704014103 87 107 2.0 5.0 0.00 0.00 0.00 71 1019.3
20220704014006 87 103 2.0 4.0 0.00 0.00 0.00 71 1019.4
20220704013903 87 93 2.0 4.0 0.00 0.00 0.00 71 1019.5
20220704013802 87 114 2.0 4.0 0.00 0.00 0.00 71 1019.5
20220704013703 87 86 1.0 4.0 0.00 0.00 0.00 71 1019.5
20220704013604 87 161 1.0 4.0 0.00 0.00 0.00 71 1019.5
20220704013502 87 23 1.0 4.0 0.00 0.00 0.00 70 1019.4
20220704013401 87 152 1.0 4.0 0.00 0.00 0.00 70 1019.5
20220704013301 87 329 2.0 4.0 0.00 0.00 0.00 70 1019.5
20220704013203 87 0 1.0 6.0 0.00 0.00 0.00 70 1019.4
20220704013102 87 54 1.0 6.0 0.00 0.00 0.00 70 1019.5
20220704013003 87 51 0.0 6.0 0.00 0.00 0.00 70 1019.4
20220704012902 87 48 0.0 6.0 0.00 0.00 0.00 70 1019.4
20220704012803 87 48 1.0 6.0 0.00 0.00 0.00 70 1019.4
20220704012703 87 134 2.0 6.0 0.00 0.00 0.00 69 1019.4
20220704012602 87 125 2.0 6.0 0.00 0.00 0.00 69 1019.4
20220704012504 87 0 1.0 6.0 0.00 0.00 0.00 69 1019.4
20220704012403 87 0 2.0 6.0 0.00 0.00 0.00 69 1019.3
20220704012304 87 130 4.0 6.0 0.00 0.00 0.00 69 1019.3
20220704012203 0 0.0 0.0 0.00 0.00 0.00 1019.4
20220704012106 0 0.0 0.0 0.00 0.00 0.00 1019.4
20220704012004 0 0.0 0.0 0.00 0.00 0.00 1019.3
20220704011903 0 0.0 1.0 0.00 0.00 0.00 1019.4
20220704011803 0 0.0 3.0 0.00 0.00 0.00 1019.2
20220704011706 0 0.0 3.0 0.00 0.00 0.00 1019.2
20220704011603 0 0.0 3.0 0.00 0.00 0.00 1019.2
20220704011503 0 0.0 4.0 0.00 0.00 0.00 1019.2
20220704011403 88 127 1.0 4.0 0.00 0.00 0.00 67 1019.2
20220704011303 88 127 1.0 4.0 0.00 0.00 0.00 67 1019.1
20220704011203 88 127 1.0 4.0 0.00 0.00 0.00 67 1019.1
20220704011106 88 127 1.0 4.0 0.00 0.00 0.00 67 1019.2
20220704011007 88 127 1.0 4.0 0.00 0.00 0.00 67 1019.3
20220704010902 88 127 2.0 4.0 0.00 0.00 0.00 67 1019.3
20220704010802 88 138 1.0 4.0 0.00 0.00 0.00 66 1019.2
20220704010704 88 124 2.0 4.0 0.00 0.00 0.00 66 1019.3
20220704010603 88 123 2.0 4.0 0.00 0.00 0.00 66 1019.3
20220704010503 88 23 2.0 4.0 0.00 0.00 0.00 66 1019.3
20220704010402 88 66 2.0 4.0 0.00 0.00 0.00 66 1019.3
20220704010303 88 83 2.0 5.0 0.00 0.00 0.00 66 1019.3
20220704010202 89 72 2.0 5.0 0.00 0.00 0.00 66 1019.3
20220704010103 89 72 2.0 5.0 0.00 0.00 0.00 66 1019.2
20220704010004 89 140 2.0 5.0 0.00 0.00 0.00 66 1019.2
20220704005903 89 240 2.0 5.0 0.00 0.00 0.00 66 1019.2
20220704005806 89 155 2.0 5.0 0.00 0.00 0.00 66 1019.3
20220704005703 89 103 2.0 5.0 0.00 0.00 0.00 66 1019.2
20220704005603 89 138 1.0 5.0 0.00 0.00 0.00 66 1019.2
20220704005502 89 123 2.0 6.0 0.00 0.00 0.00 66 1019.2
20220704005406 89 123 2.0 6.0 0.00 0.00 0.00 66 1019.2
20220704005304 89 39 1.0 6.0 0.00 0.00 0.00 66 1019.2
20220704005204 89 159 1.0 6.0 0.00 0.00 0.00 66 1019.3
20220704005102 89 159 2.0 6.0 0.00 0.00 0.00 66 1019.2
20220704005006 89 144 2.0 6.0 0.00 0.00 0.00 66 1019.2
20220704004903 89 76 2.0 6.0 0.00 0.00 0.00 66 1019.3
20220704004804 89 137 2.0 6.0 0.00 0.00 0.00 66 1019.1
20220704004703 89 137 3.0 6.0 0.00 0.00 0.00 65 1019.1
20220704004604 89 134 3.0 6.0 0.00 0.00 0.00 66 1019.1
20220704004504 89 106 2.0 6.0 0.00 0.00 0.00 66 1019.0
20220704004403 89 69 2.0 5.0 0.00 0.00 0.00 66 1019.0
20220704004303 89 103 2.0 5.0 0.00 0.00 0.00 65 1019.0
20220704004202 89 32 2.0 7.0 0.00 0.00 0.00 65 1019.0
20220704004104 89 32 2.0 7.0 0.00 0.00 0.00 65 1019.0
20220704004004 90 158 2.0 7.0 0.00 0.00 0.00 65 1019.0
20220704003907 90 72 3.0 7.0 0.00 0.00 0.00 65 1019.1
20220704003804 90 131 3.0 7.0 0.00 0.00 0.00 65 1019.0
20220704003703 90 72 2.0 7.0 0.00 0.00 0.00 65 1018.9
20220704003602 90 102 2.0 7.0 0.00 0.00 0.00 65 1019.0
20220704003504 90 17 2.0 7.0 0.00 0.00 0.00 65 1018.9
20220704003403 90 113 3.0 7.0 0.00 0.00 0.00 65 1018.8
20220704003303 90 137 3.0 7.0 0.00 0.00 0.00 65 1018.9
20220704003203 90 118 2.0 7.0 0.00 0.00 0.00 65 1018.9
20220704003102 90 144 2.0 7.0 0.00 0.00 0.00 65 1018.8
20220704003004 90 107 2.0 7.0 0.00 0.00 0.00 65 1018.8
20220704002907 90 17 3.0 7.0 0.00 0.00 0.00 65 1018.8
20220704002802 90 20 3.0 7.0 0.00 0.00 0.00 65 1018.8
20220704002703 90 121 2.0 6.0 0.00 0.00 0.00 65 1018.8
20220704002607 90 144 3.0 6.0 0.00 0.00 0.00 65 1018.7
20220704002503 91 123 2.0 6.0 0.00 0.00 0.00 65 1018.8
20220704002403 91 134 2.0 6.0 0.00 0.00 0.00 65 1018.8
20220704002303 91 87 2.0 6.0 0.00 0.00 0.00 65 1018.8
20220704002204 91 138 2.0 6.0 0.00 0.00 0.00 65 1018.7
20220704002103 91 344 2.0 11.0 0.00 0.00 0.00 64 1018.7
20220704002003 91 30 1.0 11.0 0.00 0.00 0.00 65 1018.7
20220704001904 91 0 2.0 11.0 0.00 0.00 0.00 64 1018.7
20220704001801 91 0 2.0 11.0 0.00 0.00 0.00 64 1018.7
20220704001706 91 65 2.0 11.0 0.00 0.00 0.00 64 1018.6
20220704001605 91 148 3.0 11.0 0.00 0.00 0.00 65 1018.7
20220704001502 91 179 2.0 11.0 0.00 0.00 0.00 65 1018.7
20220704001402 91 333 2.0 11.0 0.00 0.00 0.00 65 1018.6
20220704001303 91 144 3.0 11.0 0.00 0.00 0.00 64 1018.6
20220704001203 91 111 3.0 11.0 0.00 0.00 0.00 64 1018.5
20220704001102 91 286 2.0 6.0 0.00 0.00 0.00 64 1018.5
20220704001002 91 148 2.0 6.0 0.00 0.00 0.00 65 1018.6
20220704000903 91 237 2.0 6.0 0.00 0.00 0.00 65 1018.6
20220704000802 91 140 2.0 6.0 0.00 0.00 0.00 64 1018.7
20220704000703 91 203 3.0 6.0 0.00 0.00 0.00 64 1018.5
20220704000603 91 31 3.0 6.0 0.00 0.00 0.00 63 1018.5
20220704000505 91 121 3.0 7.0 0.00 0.00 0.00 64 1018.6
20220704000402 91 133 2.0 7.0 0.00 0.00 0.00 64 1018.6
20220704000302 92 134 1.0 7.0 0.00 0.00 0.00 64 1018.5
20220704000206 92 59 2.0 7.0 0.00 0.00 0.00 63 1018.5
20220704000103 92 94 2.0 7.0 0.00 0.00 0.00 63 1018.5
20220704000000 92 313 2.0 7.0 0.00 0.00 0.00 64 1018.5
20220703235857 92 193 2.0 7.0 0.00 0.00 0.00 63 1018.5
20220703235753 92 128 4.0 7.0 0.00 0.00 0.00 63 1018.4
20220703235649 92 185 4.0 7.0 0.00 0.00 0.00 62 1018.4
20220703235542 92 144 2.0 7.0 0.00 0.00 0.00 63 1018.5
20220703235439 92 114 2.0 7.0 0.00 0.00 0.00 63 1018.3
20220703235335 92 48 3.0 7.0 0.00 0.00 0.00 63 1018.4
20220703235233 92 18 3.0 7.0 0.00 0.00 0.00 62 1018.3
20220703235132 93 65 3.0 7.0 0.00 0.00 0.00 62 1018.3
20220703235032 92 65 2.0 7.0 0.00 0.00 0.00 62 1018.4
20220703234933 92 169 2.0 7.0 0.00 0.00 0.00 62 1018.3
20220703234829 92 68 2.0 7.0 0.00 0.00 0.00 62 1018.3
20220703234726 92 131 2.0 7.0 0.00 0.00 0.00 62 1018.3
20220703234626 92 34 3.0 7.0 0.00 0.00 0.00 62 1018.3
20220703234523 92 62 3.0 7.0 0.00 0.00 0.00 62 1018.3
20220703234420 92 89 3.0 7.0 0.00 0.00 0.00 62 1018.2
20220703234315 92 58 3.0 6.0 0.00 0.00 0.00 62 1018.3
20220703234216 92 231 2.0 7.0 0.00 0.00 0.00 62 1018.2
20220703234110 92 316 2.0 7.0 0.00 0.00 0.00 62 1018.2
20220703234011 92 313 2.0 7.0 0.00 0.00 0.00 62 1018.2
20220703233913 92 17 2.0 7.0 0.00 0.00 0.00 62 1018.2
20220703233808 92 114 2.0 7.0 0.00 0.00 0.00 62 1018.2
20220703233709 92 55 2.0 7.0 0.00 0.00 0.00 62 1018.0
20220703233612 92 27 2.0 7.0 0.00 0.00 0.00 62 1018.0
20220703233507 92 27 4.0 7.0 0.00 0.00 0.00 62 1018.1
20220703233409 93 103 4.0 7.0 0.00 0.00 0.00 61 1018.0
20220703233307 93 134 3.0 7.0 0.00 0.00 0.00 61 1018.1
20220703233209 93 44 2.0 5.0 0.00 0.00 0.00 61 1018.1
20220703233109 93 186 2.0 5.0 0.00 0.00 0.00 62 1018.0
20220703233008 92 251 2.0 7.0 0.00 0.00 0.00 62 1018.2
20220703232910 92 99 2.0 7.0 0.00 0.00 0.00 62 1018.3
20220703232807 92 195 1.0 7.0 0.00 0.00 0.00 61 1018.3
20220703232708 92 141 2.0 7.0 0.00 0.00 0.00 62 1018.3
20220703232608 92 14 2.0 7.0 0.00 0.00 0.00 62 1018.3
20220703232508 92 292 2.0 7.0 0.00 0.00 0.00 62 1018.3
20220703232407 92 121 2.0 7.0 0.00 0.00 0.00 62 1018.3
20220703232307 92 0 2.0 7.0 0.00 0.00 0.00 62 1018.2
20220703232209 92 161 3.0 7.0 0.00 0.00 0.00 62 1018.3
20220703232108 93 178 2.0 7.0 0.00 0.00 0.00 62 1018.3
20220703232010 93 195 2.0 7.0 0.00 0.00 0.00 62 1018.3
20220703231911 92 164 3.0 7.0 0.00 0.00 0.00 61 1018.3
20220703231808 92 173 4.0 7.0 0.00 0.00 0.00 61 1018.2
20220703231709 93 123 2.0 7.0 0.00 0.00 0.00 61 1018.1
20220703231609 93 51 2.0 7.0 0.00 0.00 0.00 61 1018.2
20220703231508 93 120 3.0 7.0 0.00 0.00 0.00 62 1018.2
20220703231407 93 175 2.0 7.0 0.00 0.00 0.00 62 1018.3
20220703231308 92 56 2.0 7.0 0.00 0.00 0.00 62 1018.2
20220703231211 93 130 3.0 7.0 0.00 0.00 0.00 62 1018.2
20220703231106 92 54 3.0 9.0 0.00 0.00 0.00 63 1018.2
20220703231009 92 71 3.0 9.0 0.00 0.00 0.00 63 1018.2
20220703230909 92 58 3.0 9.0 0.00 0.00 0.00 64 1018.2
20220703230806 92 117 3.0 9.0 0.00 0.00 0.00 64 1018.2
20220703230709 92 48 3.0 9.0 0.00 0.00 0.00 64 1018.2
20220703230611 92 196 3.0 9.0 0.00 0.00 0.00 63 1018.2
20220703230509 92 189 3.0 9.0 0.00 0.00 0.00 63 1018.2
20220703230408 92 99 2.0 9.0 0.00 0.00 0.00 63 1018.2
20220703230307 92 199 2.0 9.0 0.00 0.00 0.00 64 1018.2
20220703230208 92 176 3.0 9.0 0.00 0.00 0.00 64 1018.2
20220703230109 92 111 4.0 9.0 0.00 0.00 0.00 64 1018.2
20220703230007 92 111 3.0 9.0 0.00 0.00 0.00 63 1018.2
20220703225906 92 45 4.0 6.0 0.00 0.00 0.00 63 1018.0
20220703225807 92 78 3.0 9.0 0.00 0.00 0.00 63 1018.1
20220703225707 92 111 2.0 9.0 0.00 0.00 0.00 63 1018.1
20220703225608 92 65 2.0 9.0 0.00 0.00 0.00 63 1018.1
20220703225506 92 66 1.0 9.0 0.00 0.00 0.00 63 1018.1
20220703225406 92 72 2.0 9.0 0.00 0.00 0.00 63 1018.2
20220703225307 92 68 2.0 9.0 0.00 0.00 0.00 63 1018.1
20220703225208 93 103 2.0 9.0 0.00 0.00 0.00 62 1018.1
20220703225107 93 65 2.0 9.0 0.00 0.00 0.00 63 1018.2
20220703225010 93 54 3.0 9.0 0.00 0.00 0.00 63 1018.2
20220703224906 93 128 4.0 9.0 0.00 0.00 0.00 63 1018.2
20220703224806 93 99 2.0 6.0 0.00 0.00 0.00 62 1018.2
20220703224706 93 35 3.0 6.0 0.00 0.00 0.00 63 1018.1
20220703224606 93 72 3.0 6.0 0.00 0.00 0.00 62 1018.2
20220703224507 93 107 4.0 9.0 0.00 0.00 0.00 62 1018.3
20220703224408 93 135 3.0 9.0 0.00 0.00 0.00 61 1018.3
20220703224310 94 228 3.0 9.0 0.00 0.00 0.00 61 1018.2
20220703224206 94 14 3.0 9.0 0.00 0.00 0.00 62 1018.3
20220703224107 94 61 3.0 9.0 0.00 0.00 0.00 62 1018.4
20220703224010 94 128 2.0 9.0 0.00 0.00 0.00 62 1018.3
20220703223907 94 116 2.0 9.0 0.00 0.00 0.00 62 1018.3
20220703223810 94 89 2.0 9.0 0.00 0.00 0.00 61 1018.3
20220703223707 94 65 3.0 9.0 0.00 0.00 0.00 62 1018.3
20220703223606 94 59 3.0 9.0 0.00 0.00 0.00 61 1018.3
20220703223507 94 102 3.0 7.0 0.00 0.00 0.00 61 1018.2
20220703223406 94 94 3.0 10.0 0.00 0.00 0.00 61 1018.2
20220703223308 94 45 3.0 10.0 0.00 0.00 0.00 60 1018.2
20220703223209 94 56 3.0 10.0 0.00 0.00 0.00 60 1018.2
20220703223107 95 63 4.0 10.0 0.00 0.00 0.00 60 1018.2
20220703223006 95 87 4.0 10.0 0.00 0.00 0.00 61 1018.2
20220703222906 94 93 4.0 10.0 0.00 0.00 0.00 61 1018.2
20220703222806 94 114 4.0 10.0 0.00 0.00 0.00 61 1018.2
20220703222707 94 76 4.0 10.0 0.00 0.00 0.00 60 1018.2
20220703222606 94 62 4.0 10.0 0.00 0.00 0.00 60 1018.2
20220703222506 95 66 4.0 10.0 0.00 0.00 0.00 60 1018.0
20220703222406 95 138 3.0 7.0 0.00 0.00 0.00 60 1018.2
20220703222307 95 68 2.0 7.0 0.00 0.00 0.00 60 1018.3
20220703222206 95 151 2.0 7.0 0.00 0.00 0.00 61 1018.3
20220703222105 95 55 2.0 7.0 0.00 0.00 0.00 61 1018.4
20220703222005 94 171 2.0 7.0 0.00 0.00 0.00 62 1018.2
20220703221907 94 49 3.0 9.0 0.00 0.00 0.00 61 1018.2
20220703221811 94 107 3.0 9.0 0.00 0.00 0.00 61 1018.2
20220703221706 94 69 3.0 9.0 0.00 0.00 0.00 61 1018.2
20220703221607 94 96 3.0 9.0 0.00 0.00 0.00 60 1018.2
20220703221505 94 124 3.0 9.0 0.00 0.00 0.00 60 1018.2
20220703221405 95 110 3.0 9.0 0.00 0.00 0.00 60 1018.3
20220703221306 95 76 4.0 9.0 0.00 0.00 0.00 59 1018.3
20220703221207 95 51 4.0 9.0 0.00 0.00 0.00 60 1018.4
20220703221106 95 89 5.0 10.0 0.00 0.00 0.00 59 1018.3
20220703221009 96 109 4.0 10.0 0.00 0.00 0.00 59 1018.2
20220703220905 95 75 4.0 10.0 0.00 0.00 0.00 60 1018.4
20220703220806 95 117 4.0 10.0 0.00 0.00 0.00 61 1018.3
20220703220706 95 72 4.0 10.0 0.00 0.00 0.00 61 1018.4
20220703220605 95 96 4.0 10.0 0.00 0.00 0.00 60 1018.3
20220703220505 95 71 3.0 10.0 0.00 0.00 0.00 60 1018.4
20220703220407 95 68 3.0 10.0 0.00 0.00 0.00 60 1018.4
20220703220306 95 66 3.0 10.0 0.00 0.00 0.00 59 1018.3
20220703220206 95 123 3.0 10.0 0.00 0.00 0.00 59 1018.3
20220703220106 95 61 3.0 10.0 0.00 0.00 0.00 59 1018.4
20220703220006 95 69 2.0 10.0 0.00 0.00 0.00 60 1018.4
20220703215905 95 69 3.0 10.0 0.00 0.00 0.00 60 1018.4
20220703215805 95 72 4.0 10.0 0.00 0.00 0.00 60 1018.4
20220703215707 95 82 4.0 10.0 0.00 0.00 0.00 60 1018.4
20220703215606 95 96 4.0 10.0 0.00 0.00 0.00 60 1018.5
20220703215505 95 66 4.0 10.0 0.00 0.00 0.00 60 1018.4
20220703215405 95 59 4.0 10.0 0.00 0.00 0.00 60 1018.4
20220703215307 95 87 3.0 10.0 0.00 0.00 0.00 60 1018.4
20220703215206 95 30 2.0 9.0 0.00 0.00 0.00 60 1018.5
20220703215105 95 7 4.0 9.0 0.00 0.00 0.00 59 1018.4
20220703215007 95 161 4.0 9.0 0.00 0.00 0.00 59 1018.5
20220703214911 95 116 3.0 9.0 0.00 0.00 0.00 60 1018.5
20220703214805 95 206 3.0 9.0 0.00 0.00 0.00 60 1018.4
20220703214705 95 23 4.0 7.0 0.00 0.00 0.00 58 1018.5
20220703214607 96 213 4.0 7.0 0.00 0.00 0.00 58 1018.4
20220703214506 96 82 3.0 7.0 0.00 0.00 0.00 59 1018.5
20220703214407 96 113 3.0 7.0 0.00 0.00 0.00 59 1018.4
20220703214305 96 103 4.0 7.0 0.00 0.00 0.00 59 1018.5
20220703214206 96 79 3.0 7.0 0.00 0.00 0.00 59 1018.5
20220703214105 96 75 2.0 7.0 0.00 0.00 0.00 59 1018.5
20220703214005 95 66 2.0 7.0 0.00 0.00 0.00 59 1018.4
20220703213908 95 59 2.0 7.0 0.00 0.00 0.00 59 1018.4
20220703213809 96 63 4.0 9.0 0.00 0.00 0.00 59 1018.4
20220703213705 96 107 3.0 9.0 0.00 0.00 0.00 60 1018.5
20220703213605 95 63 3.0 9.0 0.00 0.00 0.00 59 1018.4
20220703213504 95 137 3.0 9.0 0.00 0.00 0.00 58 1018.4
20220703213404 96 41 3.0 11.0 0.00 0.00 0.00 58 1018.3
20220703213304 96 171 3.0 11.0 0.00 0.00 0.00 58 1018.4
20220703213205 96 193 2.0 11.0 0.00 0.00 0.00 59 1018.5
20220703213105 96 193 2.0 11.0 0.00 0.00 0.00 59 1018.4
20220703213005 96 68 4.0 11.0 0.00 0.00 0.00 59 1018.5
20220703212905 96 178 5.0 11.0 0.00 0.00 0.00 58 1018.4
20220703212805 96 103 4.0 11.0 0.00 0.00 0.00 58 1018.3
20220703212704 96 78 4.0 11.0 0.00 0.00 0.00 58 1018.5
20220703212604 96 89 4.0 11.0 0.00 0.00 0.00 58 1018.4
20220703212506 96 114 3.0 11.0 0.00 0.00 0.00 59 1018.5
20220703212404 96 169 3.0 10.0 0.00 0.00 0.00 59 1018.4
20220703212305 96 96 4.0 10.0 0.00 0.00 0.00 59 1018.5
20220703212204 95 97 5.0 10.0 0.00 0.00 0.00 59 1018.5
20220703212104 95 51 4.0 10.0 0.00 0.00 0.00 59 1018.5
20220703212005 95 63 4.0 10.0 0.00 0.00 0.00 58 1018.6
20220703211904 96 94 3.0 10.0 0.00 0.00 0.00 58 1018.6
20220703211805 96 31 4.0 10.0 0.00 0.00 0.00 58 1018.6
20220703211706 96 78 4.0 10.0 0.00 0.00 0.00 57 1018.6
20220703211605 96 78 3.0 5.0 0.00 0.00 0.00 57 1018.6
20220703211504 96 54 2.0 6.0 0.00 0.00 0.00 57 1018.7
20220703211404 96 94 2.0 6.0 0.00 0.00 0.00 58 1018.7
20220703211304 96 168 3.0 6.0 0.00 0.00 0.00 58 1018.7
20220703211204 96 52 2.0 6.0 0.00 0.00 0.00 58 1018.7
20220703211105 96 83 2.0 7.0 0.00 0.00 0.00 58 1018.7
20220703211004 96 171 3.0 7.0 0.00 0.00 0.00 58 1018.8
20220703210904 96 250 2.0 7.0 0.00 0.00 0.00 57 1018.7
20220703210806 96 103 2.0 7.0 0.00 0.00 0.00 57 1018.7
20220703210704 96 83 3.0 7.0 0.00 0.00 0.00 56 1018.7
20220703210604 96 206 3.0 7.0 0.00 0.00 0.00 57 1018.8
20220703210504 96 179 3.0 7.0 0.00 0.00 0.00 58 1018.7
20220703210404 96 6 3.0 7.0 0.00 0.00 0.00 58 1018.7
20220703210304 95 61 4.0 7.0 0.00 0.00 0.00 58 1018.7
20220703210204 95 89 4.0 9.0 0.00 0.00 0.00 57 1018.6
20220703210104 95 63 3.0 9.0 0.00 0.00 0.00 57 1018.7
20220703210005 95 97 3.0 9.0 0.00 0.00 0.00 56 1018.7
20220703205907 95 80 2.0 9.0 0.00 0.00 0.00 56 1018.8
20220703205804 96 123 2.0 9.0 0.00 0.00 0.00 56 1018.7
20220703205704 96 62 2.0 9.0 0.00 0.00 0.00 56 1018.7
20220703205603 96 69 3.0 9.0 0.00 0.00 0.00 56 1018.7
20220703205508 96 52 4.0 9.0 0.00 0.00 0.00 55 1018.7
20220703205406 97 66 4.0 9.0 0.00 0.00 0.00 54 1018.7
20220703205306 97 71 4.0 9.0 0.00 0.00 0.00 55 1018.8
20220703205205 97 124 3.0 6.0 0.00 0.00 0.00 55 1018.7
20220703205104 97 48 2.0 6.0 0.00 0.00 0.00 56 1018.8
20220703205004 97 59 2.0 6.0 0.00 0.00 0.00 56 1018.7
20220703204904 97 61 2.0 6.0 0.00 0.00 0.00 55 1018.7
20220703204804 97 123 3.0 9.0 0.00 0.00 0.00 55 1018.7
20220703204704 97 135 4.0 9.0 0.00 0.00 0.00 56 1018.6
20220703204604 97 69 4.0 9.0 0.00 0.00 0.00 56 1018.6
20220703204507 97 103 4.0 9.0 0.00 0.00 0.00 56 1018.6
20220703204404 96 79 4.0 9.0 0.00 0.00 0.00 56 1018.7
20220703204306 97 76 3.0 9.0 0.00 0.00 0.00 56 1018.8
20220703204204 97 62 3.0 9.0 0.00 0.00 0.00 56 1018.8
20220703204104 97 161 3.0 9.0 0.00 0.00 0.00 56 1019.0
20220703204005 97 14 3.0 9.0 0.00 0.00 0.00 55 1019.0
20220703203904 97 182 3.0 9.0 0.00 0.00 0.00 55 1019.0
20220703203804 97 28 2.0 6.0 0.00 0.00 0.00 55 1018.9
20220703203704 97 69 3.0 6.0 0.00 0.00 0.00 54 1019.0
20220703203604 98 137 4.0 6.0 0.00 0.00 0.00 54 1018.9
20220703203505 98 130 3.0 7.0 0.00 0.00 0.00 53 1019.0
20220703203404 98 65 3.0 7.0 0.00 0.00 0.00 54 1019.0
20220703203306 97 114 4.0 7.0 0.00 0.00 0.00 55 1019.0
20220703203204 97 44 3.0 7.0 0.00 0.00 0.00 54 1018.9
20220703203104 97 54 3.0 7.0 0.00 0.00 0.00 54 1018.9
20220703203003 97 61 3.0 7.0 0.00 0.00 0.00 54 1019.0
20220703202903 98 62 3.0 7.0 0.00 0.00 0.00 54 1019.1
20220703202803 98 73 3.0 7.0 0.00 0.00 0.00 54 1019.1
20220703202705 98 102 2.0 7.0 0.00 0.00 0.00 55 1019.1
20220703202604 98 55 2.0 9.0 0.00 0.00 0.00 54 1019.0
20220703202504 97 134 2.0 9.0 0.00 0.00 0.00 54 1019.1
20220703202403 97 133 3.0 9.0 0.00 0.00 0.00 54 1019.0
20220703202303 97 124 3.0 9.0 0.00 0.00 0.00 54 1019.0
20220703202204 97 27 2.0 9.0 0.00 0.00 0.00 53 1019.1
20220703202103 97 61 3.0 9.0 0.00 0.00 0.00 53 1019.0
20220703202004 97 42 3.0 9.0 0.00 0.00 0.00 53 1019.2
20220703201903 97 59 2.0 9.0 0.00 0.00 0.00 53 1019.1
20220703201803 97 54 3.0 9.0 0.00 0.00 0.00 52 1019.1
20220703201706 97 237 3.0 11.0 0.00 0.00 0.00 54 1019.0
20220703201604 97 223 3.0 11.0 0.00 0.00 0.00 53 1019.1
20220703201504 96 117 3.0 11.0 0.00 0.00 0.00 53 1019.1
20220703201406 96 62 2.0 11.0 0.00 0.00 0.00 53 1019.1
20220703201303 96 316 3.0 11.0 0.00 0.00 0.00 54 1019.1
20220703201204 96 144 4.0 11.0 0.00 0.00 0.00 53 1019.1
20220703201103 96 138 3.0 11.0 0.00 0.00 0.00 52 1019.1
20220703201004 97 130 3.0 11.0 0.00 0.00 0.00 51 1019.3
20220703200903 97 183 3.0 11.0 0.00 0.00 0.00 50 1019.3
20220703200803 97 58 3.0 11.0 0.00 0.00 0.00 48 1019.1
20220703200703 97 28 2.0 6.0 0.00 0.00 0.00 48 1019.2
20220703200604 97 76 3.0 6.0 0.00 0.00 0.00 48 1019.2
20220703200504 96 47 2.0 6.0 0.00 0.00 0.00 48 1019.2
20220703200403 97 51 1.0 6.0 0.00 0.00 0.00 47 1019.3
20220703200302 97 100 1.0 6.0 0.00 0.00 0.00 47 1019.3
20220703200201 97 114 1.0 6.0 0.00 0.00 0.00 46 1019.2
20220703200103 98 124 2.0 6.0 0.00 0.00 0.00 46 1019.2
20220703200003 98 3 3.0 6.0 0.00 0.00 0.00 46 1019.2
20220703195903 98 110 4.0 6.0 0.00 0.00 0.00 46 1019.2
20220703195802 98 134 3.0 5.0 0.00 0.00 0.00 46 1019.3
20220703195704 98 175 2.0 4.0 0.00 0.00 0.00 47 1019.3
20220703195603 98 337 2.0 4.0 0.00 0.00 0.00 47 1019.2
20220703195500 98 110 2.0 5.0 0.00 0.00 0.00 47 1019.3
20220703195358 98 71 2.0 5.0 0.00 0.00 0.00 46 1019.3
20220703195255 98 47 2.0 5.0 0.00 0.00 0.00 47 1019.4
20220703195155 98 207 2.0 5.0 0.00 0.00 0.00 47 1019.5
20220703195052 97 92 2.0 5.0 0.00 0.00 0.00 48 1019.4
20220703194945 97 61 2.0 5.0 0.00 0.00 0.00 48 1019.4
20220703194845 97 58 2.0 5.0 0.00 0.00 0.00 49 1019.4
20220703194740 97 152 2.0 5.0 0.00 0.00 0.00 49 1019.4
20220703194634 97 130 2.0 5.0 0.00 0.00 0.00 49 1019.5
20220703194533 97 120 2.0 5.0 0.00 0.00 0.00 49 1019.4
20220703194433 97 149 2.0 5.0 0.00 0.00 0.00 50 1019.5
20220703194334 97 59 1.0 5.0 0.00 0.00 0.00 50 1019.4
20220703194232 96 203 1.0 5.0 0.00 0.00 0.00 48 1019.6
20220703194126 96 204 1.0 5.0 0.00 0.00 0.00 48 1019.5
20220703194011 97 193 2.0 5.0 0.00 0.00 0.00 48 1019.5
20220703193906 97 316 2.0 5.0 0.00 0.00 0.00 48 1019.5
20220703193805 97 152 2.0 5.0 0.00 0.00 0.00 47 1019.5
20220703193704 98 71 2.0 4.0 0.00 0.00 0.00 47 1019.6
20220703193605 97 75 2.0 6.0 0.00 0.00 0.00 47 1019.5
20220703193506 97 300 2.0 6.0 0.00 0.00 0.00 47 1019.6
20220703193403 97 117 2.0 6.0 0.00 0.00 0.00 50 1019.5
20220703193302 97 72 2.0 6.0 0.00 0.00 0.00 48 1019.5
20220703193202 97 100 2.0 6.0 0.00 0.00 0.00 48 1019.5
20220703193102 97 114 2.0 6.0 0.00 0.00 0.00 48 1019.5
20220703193006 97 140 2.0 6.0 0.00 0.00 0.00 48 1019.5
20220703192903 97 94 2.0 6.0 0.00 0.00 0.00 48 1019.5
20220703192802 97 145 2.0 6.0 0.00 0.00 0.00 48 1019.6
20220703192702 97 104 3.0 6.0 0.00 0.00 0.00 49 1019.6
20220703192603 97 103 2.0 4.0 0.00 0.00 0.00 49 1019.6
20220703192502 97 145 2.0 4.0 0.00 0.00 0.00 49 1019.5
20220703192402 97 344 1.0 4.0 0.00 0.00 0.00 48 1019.6
20220703192306 97 96 1.0 6.0 0.00 0.00 0.00 48 1019.6
20220703192202 97 102 1.0 6.0 0.00 0.00 0.00 48 1019.7
20220703192103 97 102 2.0 7.0 0.00 0.00 0.00 49 1019.7
20220703192001 97 159 1.0 7.0 0.00 0.00 0.00 49 1019.7
20220703191903 97 106 2.0 7.0 0.00 0.00 0.00 49 1019.8
20220703191756 97 111 2.0 7.0 0.00 0.00 0.00 49 1019.8
20220703191654 97 25 2.0 7.0 0.00 0.00 0.00 48 1019.8
20220703191556 97 133 2.0 10.0 0.00 0.00 0.00 49 1019.7
20220703191455 97 59 2.0 10.0 0.00 0.00 0.00 50 1019.6
20220703191333 96 131 3.0 10.0 0.00 0.00 0.00 51 1019.6
20220703191232 96 94 4.0 10.0 0.00 0.00 0.00 51 1019.7
20220703191133 95 300 3.0 10.0 0.00 0.00 0.00 51 1019.7
20220703191032 95 285 2.0 10.0 0.00 0.00 0.00 50 1019.7
20220703190932 95 293 4.0 10.0 0.00 0.00 0.00 50 1019.7
20220703190819 95 289 6.0 10.0 0.00 0.00 0.00 50 1019.8
20220703190716 96 279 5.0 10.0 0.00 0.00 0.00 50 1019.8
20220703190614 96 312 3.0 6.0 0.00 0.00 0.00 50 1019.9
20220703190505 96 326 2.0 4.0 0.00 0.00 0.00 48 1019.9
20220703190402 96 337 2.0 4.0 0.00 0.00 0.00 48 1019.9
20220703190305 97 0 2.0 4.0 0.00 0.00 0.00 50 1019.9
20220703190201 96 214 2.0 4.0 0.00 0.00 0.00 52 1020.1
20220703190104 96 120 1.0 4.0 0.00 0.00 0.00 51 1020.1
20220703190001 96 128 2.0 5.0 0.00 0.00 0.00 50 1020.0
20220703185902 96 296 2.0 5.0 0.00 0.00 0.00 50 1020.1
20220703185805 96 223 2.0 7.0 0.00 0.00 0.00 51 1020.0
20220703185703 95 212 2.0 7.0 0.00 0.00 0.00 53 1020.1
20220703185604 95 351 2.0 9.0 0.00 0.00 0.00 51 1020.1
20220703185501 95 343 2.0 9.0 0.00 0.00 0.00 53 1020.0
20220703185403 95 89 1.0 9.0 0.00 0.00 0.00 52 1020.1
20220703185301 95 89 2.0 9.0 0.00 0.00 0.00 52 1020.1
20220703185201 95 93 3.0 9.0 0.00 0.00 0.00 53 1020.1
20220703185102 95 90 2.0 9.0 0.00 0.00 0.00 53 1020.0
20220703185001 95 69 4.0 9.0 0.00 0.00 0.00 52 1020.1
20220703184902 95 73 4.0 9.0 0.00 0.00 0.00 52 1020.1
20220703184802 95 100 4.0 9.0 0.00 0.00 0.00 52 1020.1
20220703184702 95 104 3.0 9.0 0.00 0.00 0.00 53 1020.2
20220703184602 94 71 2.0 5.0 0.00 0.00 0.00 54 1020.1
20220703184501 94 73 2.0 5.0 0.00 0.00 0.00 54 1020.1
20220703184403 94 94 2.0 5.0 0.00 0.00 0.00 53 1020.2
20220703184302 94 93 1.0 5.0 0.00 0.00 0.00 53 1020.2
20220703184202 94 68 2.0 6.0 0.00 0.00 0.00 55 1020.3
20220703184103 93 72 2.0 6.0 0.00 0.00 0.00 55 1020.3
20220703184005 93 82 3.0 6.0 0.00 0.00 0.00 54 1020.3
20220703183902 93 59 3.0 6.0 0.00 0.00 0.00 55 1020.3
20220703183802 93 116 2.0 6.0 0.00 0.00 0.00 55 1020.3
20220703183701 94 90 1.0 6.0 0.00 0.00 0.00 54 1020.3
20220703183601 94 65 1.0 6.0 0.00 0.00 0.00 55 1020.3
20220703183502 94 137 2.0 6.0 0.00 0.00 0.00 55 1020.3
20220703183405 94 128 3.0 6.0 0.00 0.00 0.00 53 1020.3
20220703183305 94 326 2.0 6.0 0.00 0.00 0.00 53 1020.1
20220703183201 94 38 2.0 5.0 0.00 0.00 0.00 52 1020.2
20220703183101 94 35 3.0 5.0 0.00 0.00 0.00 52 1020.3
20220703183002 95 52 3.0 5.0 0.00 0.00 0.00 52 1020.3
20220703182903 96 79 2.0 5.0 0.00 0.00 0.00 51 1020.4
20220703182800 96 82 2.0 5.0 0.00 0.00 0.00 51 1020.3
20220703182702 96 87 2.0 5.0 0.00 0.00 0.00 52 1020.4
20220703182601 96 73 2.0 5.0 0.00 0.00 0.00 53 1020.4
20220703182502 96 47 2.0 5.0 0.00 0.00 0.00 52 1020.5
20220703182400 96 166 2.0 5.0 0.00 0.00 0.00 53 1020.5
20220703182253 95 39 2.0 7.0 0.00 0.00 0.00 54 1020.4
20220703182153 94 32 2.0 7.0 0.00 0.00 0.00 54 1020.5
20220703182049 94 56 2.0 7.0 0.00 0.00 0.00 54 1020.6
20220703181946 94 141 2.0 7.0 0.00 0.00 0.00 53 1020.5
20220703181841 94 221 1.0 7.0 0.00 0.00 0.00 54 1020.6
20220703181741 93 316 1.0 7.0 0.00 0.00 0.00 54 1020.6
20220703181640 93 316 2.0 7.0 0.00 0.00 0.00 52 1020.6
20220703181532 94 316 5.0 7.0 0.00 0.00 0.00 52 1020.6
20220703181432 94 276 6.0 7.0 0.00 0.00 0.00 51 1020.6
20220703181332 94 283 6.0 7.0 0.00 0.00 0.00 54 1020.6
20220703181232 94 272 5.0 7.0 0.00 0.00 0.00 53 1020.6
20220703181132 94 324 4.0 6.0 0.00 0.00 0.00 53 1020.6
20220703181031 94 334 3.0 6.0 0.00 0.00 0.00 52 1020.7
20220703180930 94 251 2.0 6.0 0.00 0.00 0.00 53 1020.6
20220703180832 94 140 2.0 6.0 0.00 0.00 0.00 54 1020.7
20220703180731 94 314 3.0 6.0 0.00 0.00 0.00 54 1020.7
20220703180624 94 130 2.0 6.0 0.00 0.00 0.00 54 1020.7
20220703180516 94 212 3.0 6.0 0.00 0.00 0.00 55 1020.7
20220703180413 93 188 3.0 6.0 0.00 0.00 0.00 55 1020.7
20220703180308 93 135 3.0 5.0 0.00 0.00 0.00 58 1020.8
20220703180208 92 302 4.0 5.0 0.00 0.00 0.00 56 1020.7
20220703180105 92 283 3.0 5.0 0.00 0.00 0.00 56 1020.8
20220703180003 92 125 2.0 5.0 0.00 0.00 0.00 56 1020.8
20220703175902 92 147 2.0 4.0 0.00 0.00 0.00 57 1020.8
20220703175804 92 117 2.0 4.0 0.00 0.00 0.00 58 1020.8
20220703175702 91 223 1.0 3.0 0.00 0.00 0.00 58 1020.8
20220703175604 92 223 1.0 3.0 0.00 0.00 0.00 57 1020.7
20220703175502 92 223 1.0 3.0 0.00 0.00 0.00 57 1020.7
20220703175404 92 223 2.0 3.0 0.00 0.00 0.00 57 1020.8
20220703175302 92 223 2.0 5.0 0.00 0.00 0.00 57 1020.8
20220703175203 92 75 2.0 9.0 0.00 0.00 0.00 57 1020.8
20220703175102 92 75 2.0 9.0 0.00 0.00 0.00 57 1020.8
20220703175003 92 94 1.0 9.0 0.00 0.00 0.00 57 1020.7
20220703174902 92 152 1.0 9.0 0.00 0.00 0.00 56 1020.9
20220703174802 93 188 2.0 9.0 0.00 0.00 0.00 57 1020.9
20220703174703 92 182 1.0 9.0 0.00 0.00 0.00 56 1020.9
20220703174603 92 161 1.0 9.0 0.00 0.00 0.00 56 1021.0
20220703174503 93 202 2.0 9.0 0.00 0.00 0.00 57 1021.0
20220703174402 93 271 5.0 9.0 0.00 0.00 0.00 57 1021.0
20220703174302 93 237 5.0 9.0 0.00 0.00 0.00 57 1021.1
20220703174202 93 314 3.0 6.0 0.00 0.00 0.00 57 1020.9
20220703174102 93 292 2.0 4.0 0.00 0.00 0.00 58 1021.1
20220703174001 93 37 1.0 4.0 0.00 0.00 0.00 58 1021.1
20220703173902 93 86 1.0 4.0 0.00 0.00 0.00 58 1021.0
20220703173803 93 86 1.0 4.0 0.00 0.00 0.00 58 1021.0
20220703173703 92 138 1.0 4.0 0.00 0.00 0.00 58 1021.0
20220703173602 92 140 2.0 5.0 0.00 0.00 0.00 58 1021.0
20220703173505 92 141 2.0 6.0 0.00 0.00 0.00 59 1021.1
20220703173402 92 316 2.0 6.0 0.00 0.00 0.00 59 1021.0
20220703173302 92 289 1.0 6.0 0.00 0.00 0.00 60 1021.0
20220703173207 92 200 2.0 6.0 0.00 0.00 0.00 60 1021.0
20220703173102 91 279 3.0 6.0 0.00 0.00 0.00 60 1021.1
20220703173002 91 300 2.0 6.0 0.00 0.00 0.00 61 1021.0
20220703172902 91 316 2.0 6.0 0.00 0.00 0.00 61 1021.1
20220703172804 91 313 3.0 6.0 0.00 0.00 0.00 60 1021.1
20220703172702 91 314 4.0 6.0 0.00 0.00 0.00 61 1021.2
20220703172603 91 282 4.0 6.0 0.00 0.00 0.00 61 1021.2
20220703172502 91 278 4.0 6.0 0.00 0.00 0.00 61 1021.2
20220703172402 91 261 4.0 6.0 0.00 0.00 0.00 61 1021.2
20220703172305 91 247 3.0 6.0 0.00 0.00 0.00 61 1021.2
20220703172205 91 261 3.0 6.0 0.00 0.00 0.00 60 1021.1
20220703172104 91 254 4.0 6.0 0.00 0.00 0.00 60 1021.1
20220703172004 91 282 5.0 6.0 0.00 0.00 0.00 59 1021.1
20220703171902 91 303 5.0 6.0 0.00 0.00 0.00 59 1021.1
20220703171805 92 296 4.0 6.0 0.00 0.00 0.00 58 1021.1
20220703171704 92 272 3.0 6.0 0.00 0.00 0.00 60 1021.1
20220703171603 92 223 1.0 5.0 0.00 0.00 0.00 60 1021.1
20220703171502 91 176 1.0 5.0 0.00 0.00 0.00 60 1021.2
20220703171402 91 169 1.0 5.0 0.00 0.00 0.00 60 1021.2
20220703171305 91 169 1.0 5.0 0.00 0.00 0.00 60 1021.2
20220703171202 91 158 2.0 5.0 0.00 0.00 0.00 60 1021.3
20220703171103 91 48 2.0 5.0 0.00 0.00 0.00 60 1021.3
20220703171002 91 161 2.0 4.0 0.00 0.00 0.00 60 1021.2
20220703170902 91 268 1.0 5.0 0.00 0.00 0.00 61 1021.3
20220703170802 91 185 1.0 5.0 0.00 0.00 0.00 61 1021.2
20220703170705 91 316 1.0 10.0 0.00 0.00 0.00 61 1021.3
20220703170602 91 333 2.0 10.0 0.00 0.00 0.00 62 1021.3
20220703170506 91 314 2.0 11.0 0.00 0.00 0.00 61 1021.3
20220703170402 91 298 2.0 11.0 0.00 0.00 0.00 61 1021.3
20220703170303 91 227 2.0 11.0 0.00 0.00 0.00 60 1021.3
20220703170202 91 305 2.0 11.0 0.00 0.00 0.00 61 1021.2
20220703170103 91 243 2.0 11.0 0.00 0.00 0.00 61 1021.3
20220703170003 91 247 2.0 11.0 0.00 0.00 0.00 60 1021.2
20220703165902 91 135 4.0 11.0 0.00 0.00 0.00 60 1021.1
20220703165802 91 264 5.0 11.0 0.00 0.00 0.00 59 1021.2
20220703165701 91 0 6.0 11.0 0.00 0.00 0.00 59 1021.1
20220703165604 91 259 5.0 11.0 0.00 0.00 0.00 60 1021.2
20220703165503 91 44 1.0 9.0 0.00 0.00 0.00 60 1021.2
20220703165402 91 8 2.0 9.0 0.00 0.00 0.00 61 1021.2
20220703165303 91 254 4.0 9.0 0.00 0.00 0.00 61 1021.2
20220703165203 91 278 6.0 9.0 0.00 0.00 0.00 60 1021.2
20220703165103 91 282 4.0 9.0 0.00 0.00 0.00 60 1021.0
20220703165004 91 292 2.0 5.0 0.00 0.00 0.00 61 1021.1
20220703164903 91 282 2.0 5.0 0.00 0.00 0.00 61 1021.0
20220703164801 91 216 2.0 5.0 0.00 0.00 0.00 61 1021.1
20220703164702 91 134 3.0 5.0 0.00 0.00 0.00 61 1021.1
20220703164602 91 127 2.0 5.0 0.00 0.00 0.00 61 1021.1
20220703164504 91 128 2.0 5.0 0.00 0.00 0.00 62 1021.1
20220703164404 91 124 2.0 5.0 0.00 0.00 0.00 60 1021.0
20220703164303 92 134 2.0 5.0 0.00 0.00 0.00 60 1021.1
20220703164203 92 72 2.0 5.0 0.00 0.00 0.00 59 1021.1
20220703164102 93 182 2.0 5.0 0.00 0.00 0.00 60 1021.2
20220703164004 93 62 1.0 5.0 0.00 0.00 0.00 60 1021.2
20220703163902 93 63 1.0 5.0 0.00 0.00 0.00 61 1021.1
20220703163803 92 73 2.0 5.0 0.00 0.00 0.00 61 1021.1
20220703163706 92 13 2.0 5.0 0.00 0.00 0.00 61 1021.1
20220703163602 92 0 3.0 5.0 0.00 0.00 0.00 61 1021.1
20220703163503 92 120 3.0 5.0 0.00 0.00 0.00 62 1021.1
20220703163401 92 6 3.0 5.0 0.00 0.00 0.00 61 1021.1
20220703163302 92 131 3.0 5.0 0.00 0.00 0.00 61 1021.2
20220703163202 92 278 2.0 6.0 0.00 0.00 0.00 61 1021.2
20220703163103 91 137 1.0 9.0 0.00 0.00 0.00 62 1021.1
20220703163006 91 158 2.0 9.0 0.00 0.00 0.00 62 1021.2
20220703162903 91 158 3.0 9.0 0.00 0.00 0.00 61 1021.2
20220703162804 91 0 3.0 9.0 0.00 0.00 0.00 61 1021.1
20220703162703 91 200 4.0 9.0 0.00 0.00 0.00 61 1021.2
20220703162602 91 206 4.0 9.0 0.00 0.00 0.00 63 1021.2
20220703162503 91 289 3.0 9.0 0.00 0.00 0.00 62 1021.2
20220703162402 91 310 4.0 9.0 0.00 0.00 0.00 62 1021.1
20220703162303 92 278 5.0 9.0 0.00 0.00 0.00 61 1021.2
20220703162202 92 290 4.0 9.0 0.00 0.00 0.00 61 1021.2
20220703162102 92 296 2.0 6.0 0.00 0.00 0.00 61 1021.1
20220703162004 92 240 2.0 6.0 0.00 0.00 0.00 61 1021.1
20220703161901 92 255 2.0 6.0 0.00 0.00 0.00 62 1021.0
20220703161759 91 27 2.0 6.0 0.00 0.00 0.00 62 1021.1
20220703161659 91 117 2.0 6.0 0.00 0.00 0.00 62 1021.0
20220703161559 91 190 2.0 7.0 0.00 0.00 0.00 62 1021.1
20220703161501 91 180 2.0 7.0 0.00 0.00 0.00 63 1021.1
20220703161358 91 109 3.0 7.0 0.00 0.00 0.00 63 1020.9
20220703161258 91 283 2.0 7.0 0.00 0.00 0.00 63 1021.0
20220703161158 91 207 2.0 7.0 0.00 0.00 0.00 63 1021.1
20220703161057 91 214 2.0 12.0 0.00 0.00 0.00 63 1021.2
20220703160958 91 94 3.0 12.0 0.00 0.00 0.00 63 1021.2
20220703160859 91 309 4.0 12.0 0.00 0.00 0.00 64 1021.2
20220703160758 90 298 4.0 12.0 0.00 0.00 0.00 63 1021.2
20220703160657 90 290 5.0 12.0 0.00 0.00 0.00 63 1021.2
20220703160558 90 279 3.0 12.0 0.00 0.00 0.00 64 1021.2
20220703160458 90 262 3.0 12.0 0.00 0.00 0.00 64 1021.3
20220703160358 90 252 4.0 12.0 0.00 0.00 0.00 63 1021.2
20220703160257 90 314 6.0 12.0 0.00 0.00 0.00 63 1021.2
20220703160159 90 292 7.0 12.0 0.00 0.00 0.00 63 1021.2
20220703160058 90 285 4.0 10.0 0.00 0.00 0.00 66 1021.1
20220703155957 90 262 3.0 6.0 0.00 0.00 0.00 65 1021.3
20220703155858 90 58 3.0 6.0 0.00 0.00 0.00 64 1021.2
20220703155758 90 0 2.0 6.0 0.00 0.00 0.00 64 1021.1
20220703155658 89 286 3.0 6.0 0.00 0.00 0.00 64 1021.2
20220703155559 89 278 4.0 7.0 0.00 0.00 0.00 65 1021.2
20220703155458 89 319 4.0 7.0 0.00 0.00 0.00 65 1021.2
20220703155405 89 276 2.0 7.0 0.00 0.00 0.00 66 1021.2
20220703155258 89 272 3.0 7.0 0.00 0.00 0.00 66 1021.3
20220703155157 89 281 3.0 7.0 0.00 0.00 0.00 65 1021.2
20220703155059 90 0 2.0 7.0 0.00 0.00 0.00 66 1021.1
20220703154957 90 310 2.0 7.0 0.00 0.00 0.00 66 1021.1
20220703154859 90 317 2.0 7.0 0.00 0.00 0.00 66 1021.0
20220703154757 90 302 4.0 7.0 0.00 0.00 0.00 66 1021.0
20220703154659 89 224 3.0 7.0 0.00 0.00 0.00 66 1021.0
20220703154558 89 251 2.0 6.0 0.00 0.00 0.00 65 1021.1
20220703154458 89 314 2.0 6.0 0.00 0.00 0.00 65 1021.1
20220703154357 89 353 1.0 6.0 0.00 0.00 0.00 65 1021.0
20220703154300 89 353 2.0 6.0 0.00 0.00 0.00 66 1021.1
20220703154202 89 213 3.0 6.0 0.00 0.00 0.00 66 1021.1
20220703154058 89 63 2.0 6.0 0.00 0.00 0.00 67 1021.0
20220703153957 89 202 2.0 6.0 0.00 0.00 0.00 67 1021.2
20220703153857 89 264 2.0 6.0 0.00 0.00 0.00 70 1021.1
20220703153757 89 148 3.0 6.0 0.00 0.00 0.00 70 1021.1
20220703153658 88 285 4.0 6.0 0.00 0.00 0.00 68 1021.2
20220703153558 88 265 4.0 6.0 0.00 0.00 0.00 68 1021.1
20220703153457 88 266 5.0 6.0 0.00 0.00 0.00 68 1021.1
20220703153356 88 272 4.0 6.0 0.00 0.00 0.00 68 1021.2
20220703153259 89 293 4.0 6.0 0.00 0.00 0.00 68 1021.1
20220703153157 89 312 4.0 7.0 0.00 0.00 0.00 68 1021.1
20220703153057 89 262 4.0 7.0 0.00 0.00 0.00 68 1021.1
20220703152959 89 307 3.0 7.0 0.00 0.00 0.00 69 1021.1
20220703152857 88 295 2.0 7.0 0.00 0.00 0.00 69 1021.2
20220703152756 88 127 1.0 7.0 0.00 0.00 0.00 70 1021.2
20220703152656 88 159 2.0 7.0 0.00 0.00 0.00 70 1021.2
20220703152557 88 18 3.0 7.0 0.00 0.00 0.00 70 1021.1
20220703152457 88 259 3.0 7.0 0.00 0.00 0.00 70 1021.2
20220703152358 88 247 2.0 7.0 0.00 0.00 0.00 70 1021.1
20220703152258 88 286 1.0 7.0 0.00 0.00 0.00 71 1021.1
20220703152202 88 250 1.0 7.0 0.00 0.00 0.00 71 1021.1
20220703152100 88 296 2.0 7.0 0.00 0.00 0.00 72 1021.1
20220703151958 87 290 3.0 7.0 0.00 0.00 0.00 71 1021.0
20220703151901 87 292 3.0 7.0 0.00 0.00 0.00 70 1021.1
20220703151757 87 278 4.0 7.0 0.00 0.00 0.00 70 1021.0
20220703151656 87 285 3.0 7.0 0.00 0.00 0.00 71 1021.0
20220703151602 87 293 0.0 3.0 0.00 0.00 0.00 72 1021.1
20220703151457 87 299 0.0 4.0 0.00 0.00 0.00 72 1021.0
20220703151357 87 299 1.0 4.0 0.00 0.00 0.00 72 1021.0
20220703151257 87 303 1.0 4.0 0.00 0.00 0.00 72 1021.0
20220703151158 87 303 1.0 4.0 0.00 0.00 0.00 71 1021.0
20220703151057 87 302 1.0 4.0 0.00 0.00 0.00 71 1021.1
20220703150956 87 303 1.0 4.0 0.00 0.00 0.00 72 1021.1
20220703150856 87 0 2.0 4.0 0.00 0.00 0.00 71 1021.1
20220703150758 87 188 1.0 5.0 0.00 0.00 0.00 71 1021.0
20220703150657 88 230 2.0 5.0 0.00 0.00 0.00 71 1021.0
20220703150558 88 269 2.0 5.0 0.00 0.00 0.00 71 1021.0
20220703150457 88 264 2.0 5.0 0.00 0.00 0.00 70 1021.0
20220703150355 88 121 2.0 5.0 0.00 0.00 0.00 69 1021.0
20220703150256 88 131 2.0 5.0 0.00 0.00 0.00 70 1021.0
20220703150157 88 319 2.0 5.0 0.00 0.00 0.00 71 1020.9
20220703150056 88 106 2.0 5.0 0.00 0.00 0.00 71 1020.9
20220703145957 88 27 2.0 5.0 0.00 0.00 0.00 71 1020.9
20220703145857 88 99 3.0 5.0 0.00 0.00 0.00 72 1020.9
20220703145756 88 186 2.0 5.0 0.00 0.00 0.00 72 1021.0
20220703145657 87 241 2.0 4.0 0.00 0.00 0.00 72 1020.9
20220703145555 87 180 2.0 4.0 0.00 0.00 0.00 72 1021.0
20220703145456 87 117 2.0 4.0 0.00 0.00 0.00 72 1020.9
20220703145400 87 355 2.0 4.0 0.00 0.00 0.00 73 1021.0
20220703145256 86 58 2.0 4.0 0.00 0.00 0.00 74 1020.9
20220703145156 86 135 2.0 4.0 0.00 0.00 0.00 74 1020.8
20220703145100 86 340 2.0 4.0 0.00 0.00 0.00 74 1020.8
20220703144957 86 107 2.0 4.0 0.00 0.00 0.00 74 1020.8
20220703144855 86 142 1.0 4.0 0.00 0.00 0.00 75 1020.9
20220703144757 86 327 2.0 4.0 0.00 0.00 0.00 75 1020.9
20220703144655 86 323 2.0 4.0 0.00 0.00 0.00 75 1020.9
20220703144559 86 55 1.0 5.0 0.00 0.00 0.00 75 1020.9
20220703144456 86 44 1.0 5.0 0.00 0.00 0.00 76 1020.9
20220703144359 86 169 1.0 5.0 0.00 0.00 0.00 75 1021.0
20220703144257 86 169 1.0 5.0 0.00 0.00 0.00 75 1021.0
20220703144158 86 120 1.0 5.0 0.00 0.00 0.00 76 1021.0
20220703144057 86 118 2.0 5.0 0.00 0.00 0.00 75 1021.0
20220703143955 86 306 2.0 5.0 0.00 0.00 0.00 75 1021.0
20220703143857 85 52 1.0 5.0 0.00 0.00 0.00 77 1021.0
20220703143755 85 324 2.0 5.0 0.00 0.00 0.00 77 1021.0
20220703143700 85 199 2.0 5.0 0.00 0.00 0.00 77 1021.0
20220703143556 85 133 2.0 6.0 0.00 0.00 0.00 77 1021.0
20220703143455 85 252 1.0 6.0 0.00 0.00 0.00 77 1020.9
20220703143355 85 134 1.0 6.0 0.00 0.00 0.00 77 1021.0
20220703143256 85 134 1.0 6.0 0.00 0.00 0.00 76 1021.0
20220703143155 85 134 1.0 6.0 0.00 0.00 0.00 76 1021.0
20220703143057 85 196 2.0 6.0 0.00 0.00 0.00 76 1021.0
20220703142955 86 0 2.0 6.0 0.00 0.00 0.00 76 1021.1
20220703142856 86 207 2.0 6.0 0.00 0.00 0.00 77 1020.9
20220703142755 85 300 2.0 6.0 0.00 0.00 0.00 77 1021.0
20220703142655 85 13 2.0 6.0 0.00 0.00 0.00 80 1021.0
20220703142556 85 338 2.0 5.0 0.00 0.00 0.00 80 1020.9
20220703142455 85 189 1.0 5.0 0.00 0.00 0.00 80 1020.9
20220703142356 85 69 1.0 5.0 0.00 0.00 0.00 81 1020.8
20220703142255 85 78 1.0 5.0 0.00 0.00 0.00 80 1020.9
20220703142155 85 52 2.0 5.0 0.00 0.00 0.00 80 1020.9
20220703142056 85 55 2.0 5.0 0.00 0.00 0.00 81 1020.9
20220703141955 85 124 2.0 4.0 0.00 0.00 0.00 80 1020.9
20220703141857 85 124 2.0 4.0 0.00 0.00 0.00 81 1020.9
20220703141754 85 27 1.0 4.0 0.00 0.00 0.00 81 1021.0
20220703141656 84 137 1.0 4.0 0.00 0.00 0.00 82 1021.0
20220703141555 84 350 2.0 5.0 0.00 0.00 0.00 82 1021.1
20220703141455 84 30 1.0 5.0 0.00 0.00 0.00 82 1021.1
20220703141359 84 121 1.0 5.0 0.00 0.00 0.00 82 1021.0
20220703141255 84 154 1.0 5.0 0.00 0.00 0.00 82 1021.1
20220703141156 84 176 1.0 5.0 0.00 0.00 0.00 82 1021.1
20220703141056 84 159 2.0 5.0 0.00 0.00 0.00 82 1021.0
20220703141000 84 279 2.0 5.0 0.00 0.00 0.00 83 1021.0
20220703140857 84 283 1.0 5.0 0.00 0.00 0.00 83 1021.0
20220703140757 84 312 2.0 6.0 0.00 0.00 0.00 83 1020.9
20220703140654 84 216 2.0 6.0 0.00 0.00 0.00 83 1021.0
20220703140554 84 274 2.0 6.0 0.00 0.00 0.00 83 1020.9
20220703140453 84 326 1.0 6.0 0.00 0.00 0.00 83 1021.0
20220703140352 84 312 1.0 6.0 0.00 0.00 0.00 83 1021.0
20220703140244 84 282 1.0 6.0 0.00 0.00 0.00 83 1021.1
20220703140141 84 251 2.0 6.0 0.00 0.00 0.00 83 1021.1
20220703140040 84 320 2.0 6.0 0.00 0.00 0.00 83 1020.9
20220703135938 84 276 2.0 6.0 0.00 0.00 0.00 82 1020.9
20220703135832 84 317 3.0 6.0 0.00 0.00 0.00 82 1020.9
20220703135733 84 319 3.0 5.0 0.00 0.00 0.00 82 1020.9
20220703135633 85 324 3.0 5.0 0.00 0.00 0.00 82 1021.0
20220703135531 85 265 3.0 5.0 0.00 0.00 0.00 82 1020.9
20220703135431 85 276 3.0 5.0 0.00 0.00 0.00 82 1020.9
20220703135332 85 288 2.0 4.0 0.00 0.00 0.00 82 1021.0
20220703135232 85 290 2.0 4.0 0.00 0.00 0.00 82 1021.1
20220703135133 85 307 1.0 4.0 0.00 0.00 0.00 82 1021.1
20220703135031 85 309 1.0 4.0 0.00 0.00 0.00 82 1021.0
20220703134934 85 312 1.0 4.0 0.00 0.00 0.00 82 1021.1
20220703134830 85 312 2.0 4.0 0.00 0.00 0.00 82 1021.2
20220703134731 85 295 1.0 4.0 0.00 0.00 0.00 82 1021.0
20220703134623 85 147 1.0 4.0 0.00 0.00 0.00 83 1021.1
20220703134524 85 83 1.0 4.0 0.00 0.00 0.00 83 1021.0
20220703134420 85 82 1.0 4.0 0.00 0.00 0.00 84 1021.0
20220703134318 85 141 2.0 4.0 0.00 0.00 0.00 84 1021.0
20220703134216 85 54 1.0 4.0 0.00 0.00 0.00 84 1021.1
20220703134115 84 130 2.0 4.0 0.00 0.00 0.00 84 1021.1
20220703134013 84 110 2.0 4.0 0.00 0.00 0.00 84 1021.0
20220703133913 84 133 1.0 4.0 0.00 0.00 0.00 84 1021.1
20220703133809 84 135 1.0 4.0 0.00 0.00 0.00 84 1021.1
20220703133707 84 114 1.0 4.0 0.00 0.00 0.00 84 1021.0
20220703133605 84 111 1.0 4.0 0.00 0.00 0.00 84 1021.0
20220703133507 84 140 1.0 4.0 0.00 0.00 0.00 84 1021.0
20220703133405 84 140 2.0 4.0 0.00 0.00 0.00 84 1021.0
20220703133305 84 131 1.0 4.0 0.00 0.00 0.00 85 1020.9
20220703133202 84 151 1.0 3.0 0.00 0.00 0.00 85 1020.8
20220703133103 84 217 1.0 3.0 0.00 0.00 0.00 85 1020.9
20220703133004 84 189 1.0 2.0 0.00 0.00 0.00 85 1021.0
20220703132903 84 118 1.0 2.0 0.00 0.00 0.00 85 1021.0
20220703132805 84 118 1.0 2.0 0.00 0.00 0.00 85 1021.0
20220703132703 84 118 1.0 2.0 0.00 0.00 0.00 86 1021.0
20220703132602 84 114 1.0 3.0 0.00 0.00 0.00 86 1021.0
20220703132503 83 114 1.0 3.0 0.00 0.00 0.00 86 1021.0
20220703132403 83 124 0.0 3.0 0.00 0.00 0.00 87 1021.0
20220703132303 83 124 0.0 3.0 0.00 0.00 0.00 87 1021.1
20220703132202 83 124 0.0 3.0 0.00 0.00 0.00 88 1021.0
20220703132102 83 124 0.0 3.0 0.00 0.00 0.00 87 1021.0
20220703132003 83 124 0.0 3.0 0.00 0.00 0.00 87 1021.0
20220703131904 83 124 0.0 3.0 0.00 0.00 0.00 87 1021.0
20220703131802 83 124 1.0 3.0 0.00 0.00 0.00 87 1020.9
20220703131703 83 124 1.0 3.0 0.00 0.00 0.00 86 1021.0
20220703131601 83 123 1.0 2.0 0.00 0.00 0.00 86 1020.9
20220703131504 83 123 1.0 2.0 0.00 0.00 0.00 87 1020.9
20220703131402 83 123 1.0 2.0 0.00 0.00 0.00 87 1020.9
20220703131303 83 123 0.0 2.0 0.00 0.00 0.00 88 1021.0
20220703131204 83 125 0.0 2.0 0.00 0.00 0.00 88 1020.9
20220703131102 83 125 0.0 2.0 0.00 0.00 0.00 88 1020.9
20220703131004 83 125 0.0 2.0 0.00 0.00 0.00 89 1020.9
20220703130903 82 125 1.0 2.0 0.00 0.00 0.00 88 1020.8
20220703130804 82 125 1.0 2.0 0.00 0.00 0.00 89 1020.9
20220703130704 82 125 0.0 2.0 0.00 0.00 0.00 89 1020.7
20220703130603 82 125 0.0 2.0 0.00 0.00 0.00 89 1020.8
20220703130501 82 125 0.0 3.0 0.00 0.00 0.00 89 1020.7
20220703130404 82 121 0.0 3.0 0.00 0.00 0.00 89 1020.7
20220703130301 82 121 0.0 3.0 0.00 0.00 0.00 90 1020.7
20220703130203 82 121 0.0 3.0 0.00 0.00 0.00 90 1020.7
20220703130102 82 113 0.0 3.0 0.00 0.00 0.00 90 1020.6
20220703130001 82 113 1.0 3.0 0.00 0.00 0.00 91 1020.7
20220703125902 82 113 0.0 3.0 0.00 0.00 0.00 91 1020.6
20220703125802 82 113 0.0 3.0 0.00 0.00 0.00 91 1020.7
20220703125702 81 114 1.0 3.0 0.00 0.00 0.00 91 1020.7
20220703125603 81 114 1.0 3.0 0.00 0.00 0.00 91 1020.7
20220703125504 81 109 0.0 2.0 0.00 0.00 0.00 92 1020.7
20220703125403 81 107 0.0 2.0 0.00 0.00 0.00 92 1020.6
20220703125302 81 111 0.0 2.0 0.00 0.00 0.00 93 1020.6
20220703125202 81 110 0.0 2.0 0.00 0.00 0.00 93 1020.6
20220703125103 81 110 0.0 2.0 0.00 0.00 0.00 93 1020.6
20220703125005 81 110 0.0 2.0 0.00 0.00 0.00 93 1020.5
20220703124902 80 110 0.0 2.0 0.00 0.00 0.00 93 1020.6
20220703124803 80 110 0.0 2.0 0.00 0.00 0.00 93 1020.6
20220703124702 80 110 0.0 2.0 0.00 0.00 0.00 94 1020.6
20220703124606 80 110 0.0 2.0 0.00 0.00 0.00 94 1020.6
20220703124502 80 110 0.0 2.0 0.00 0.00 0.00 94 1020.6
20220703124402 80 110 0.0 2.0 0.00 0.00 0.00 94 1020.6
20220703124305 80 110 0.0 2.0 0.00 0.00 0.00 95 1020.6
20220703124203 80 110 0.0 2.0 0.00 0.00 0.00 95 1020.6
20220703124103 80 110 0.0 2.0 0.00 0.00 0.00 95 1020.6
20220703124003 80 107 0.0 0.0 0.00 0.00 0.00 95 1020.5
20220703123904 79 107 0.0 0.0 0.00 0.00 0.00 95 1020.5
20220703123801 79 107 0.0 0.0 0.00 0.00 0.00 95 1020.5
20220703123704 79 107 0.0 0.0 0.00 0.00 0.00 95 1020.5
20220703123606 79 107 0.0 0.0 0.00 0.00 0.00 95 1020.4
20220703123506 79 107 0.0 0.0 0.00 0.00 0.00 95 1020.4
20220703123402 79 107 0.0 0.0 0.00 0.00 0.00 95 1020.4
20220703123301 79 107 0.0 0.0 0.00 0.00 0.00 96 1020.5
20220703123203 79 107 0.0 0.0 0.00 0.00 0.00 96 1020.5
20220703123103 79 107 0.0 0.0 0.00 0.00 0.00 96 1020.5
20220703123007 78 107 0.0 0.0 0.00 0.00 0.00 96 1020.4
20220703122903 78 107 0.0 0.0 0.00 0.00 0.00 96 1020.4
20220703122802 78 107 0.0 0.0 0.00 0.00 0.00 96 1020.5
20220703122703 78 107 0.0 0.0 0.00 0.00 0.00 96 1020.4
20220703122604 78 107 0.0 0.0 0.00 0.00 0.00 96 1020.4
20220703122503 78 107 0.0 0.0 0.00 0.00 0.00 96 1020.4
20220703122402 78 107 0.0 0.0 0.00 0.00 0.00 96 1020.4
20220703122302 78 107 0.0 0.0 0.00 0.00 0.00 96 1020.4
20220703122207 78 107 0.0 0.0 0.00 0.00 0.00 96 1020.4
20220703122104 78 107 0.0 0.0 0.00 0.00 0.00 96 1020.4
20220703122005 78 107 0.0 0.0 0.00 0.00 0.00 96 1020.4
20220703121902 78 107 0.0 0.0 0.00 0.00 0.00 96 1020.3
20220703121802 78 107 0.0 0.0 0.00 0.00 0.00 96 1020.3
20220703121702 78 107 0.0 0.0 0.00 0.00 0.00 96 1020.4
20220703121602 78 107 0.0 0.0 0.00 0.00 0.00 96 1020.3
20220703121504 78 107 0.0 0.0 0.00 0.00 0.00 96 1020.3
20220703121403 78 107 0.0 0.0 0.00 0.00 0.00 96 1020.2
20220703121302 78 107 0.0 0.0 0.00 0.00 0.00 96 1020.3
20220703121202 78 107 0.0 0.0 0.00 0.00 0.00 96 1020.1
20220703121103 78 107 0.0 0.0 0.00 0.00 0.00 96 1020.3
20220703121002 78 107 0.0 0.0 0.00 0.00 0.00 96 1020.3
20220703120904 78 107 0.0 0.0 0.00 0.00 0.00 96 1020.2
20220703120801 78 107 0.0 0.0 0.00 0.00 0.00 96 1020.2
20220703120703 78 107 0.0 0.0 0.00 0.00 0.00 96 1020.2
20220703120602 77 107 0.0 0.0 0.00 0.00 0.00 97 1020.2
20220703120503 77 107 0.0 0.0 0.00 0.00 0.00 97 1020.2
20220703120402 77 107 0.0 0.0 0.00 0.00 0.00 96 1020.2
20220703120302 77 107 0.0 0.0 0.00 0.00 0.00 97 1020.2
20220703120203 77 107 0.0 0.0 0.00 0.00 0.00 97 1020.2
20220703120102 77 107 0.0 0.0 0.00 0.00 0.00 97 1020.3
20220703120004 77 107 0.0 1.0 0.00 0.00 0.00 97 1020.2
20220703115901 77 107 0.0 1.0 0.00 0.00 0.00 97 1020.3
20220703115803 77 107 0.0 1.0 0.00 0.00 0.00 97 1020.2
20220703115703 77 107 0.0 1.0 0.00 0.00 0.00 97 1020.2
20220703115603 77 107 0.0 1.0 0.00 0.00 0.00 97 1020.1
20220703115458 77 107 0.0 1.0 0.00 0.00 0.00 97 1020.1
20220703115359 77 107 0.0 1.0 0.00 0.00 0.00 97 1020.0
20220703115257 77 107 0.0 1.0 0.00 0.00 0.00 97 1020.1
20220703115151 77 107 0.0 1.0 0.00 0.00 0.00 97 1020.0
20220703115056 77 107 0.0 1.0 0.00 0.00 0.00 97 1020.0
20220703114952 77 107 0.0 1.0 0.00 0.00 0.00 97 1020.0
20220703114851 77 107 0.0 1.0 0.00 0.00 0.00 97 1020.0
20220703114756 77 121 0.0 1.0 0.00 0.00 0.00 97 1020.0
20220703114652 77 121 0.0 1.0 0.00 0.00 0.00 97 1020.0
20220703114552 77 121 0.0 1.0 0.00 0.00 0.00 97 1020.1
20220703114452 77 121 0.0 1.0 0.00 0.00 0.00 97 1020.1
20220703114352 77 103 0.0 1.0 0.00 0.00 0.00 97 1020.1
20220703114252 77 103 0.0 1.0 0.00 0.00 0.00 97 1020.1
20220703114151 77 103 0.0 0.0 0.00 0.00 0.00 97 1020.0
20220703114053 77 103 0.0 0.0 0.00 0.00 0.00 97 1020.0
20220703113952 77 103 0.0 0.0 0.00 0.00 0.00 97 1020.0
20220703113852 77 103 0.0 0.0 0.00 0.00 0.00 97 1020.0
20220703113756 77 103 0.0 0.0 0.00 0.00 0.00 97 1020.0
20220703113653 77 103 0.0 0.0 0.00 0.00 0.00 97 1019.9
20220703113555 77 103 0.0 0.0 0.00 0.00 0.00 97 1019.9
20220703113452 77 103 0.0 0.0 0.00 0.00 0.00 97 1019.9
20220703113352 77 103 0.0 0.0 0.00 0.00 0.00 97 1020.0
20220703113252 77 103 0.0 0.0 0.00 0.00 0.00 96 1019.8
20220703113155 77 103 0.0 0.0 0.00 0.00 0.00 96 1019.8
20220703113053 77 103 0.0 0.0 0.00 0.00 0.00 96 1019.8
20220703112953 77 103 0.0 0.0 0.00 0.00 0.00 96 1019.8
20220703112851 77 103 0.0 0.0 0.00 0.00 0.00 96 1019.7
20220703112753 77 103 0.0 1.0 0.00 0.00 0.00 96 1019.7
20220703112652 77 103 0.0 1.0 0.00 0.00 0.00 96 1019.7
20220703112551 77 103 0.0 1.0 0.00 0.00 0.00 96 1019.6
20220703112453 77 103 0.0 1.0 0.00 0.00 0.00 96 1019.6
20220703112355 77 103 0.0 1.0 0.00 0.00 0.00 96 1019.7
20220703112251 77 103 0.0 1.0 0.00 0.00 0.00 96 1019.8
20220703112151 77 103 0.0 1.0 0.00 0.00 0.00 96 1019.8
20220703112053 77 103 0.0 1.0 0.00 0.00 0.00 96 1019.8
20220703111952 77 103 0.0 1.0 0.00 0.00 0.00 96 1019.7
20220703111851 77 103 0.0 1.0 0.00 0.00 0.00 96 1019.8
20220703111752 77 103 0.0 0.0 0.00 0.00 0.00 96 1019.7
20220703111652 77 103 0.0 0.0 0.00 0.00 0.00 96 1019.6
20220703111552 77 103 0.0 0.0 0.00 0.00 0.00 96 1019.6
20220703111451 77 103 0.0 0.0 0.00 0.00 0.00 96 1019.6
20220703111352 77 103 0.0 0.0 0.00 0.00 0.00 96 1019.6
20220703111253 77 103 0.0 0.0 0.00 0.00 0.00 96 1019.6
20220703111152 77 103 0.0 0.0 0.00 0.00 0.00 96 1019.6
20220703111052 77 103 0.0 0.0 0.00 0.00 0.00 96 1019.7
20220703110951 77 103 0.0 0.0 0.00 0.00 0.00 96 1019.7
20220703110851 77 103 0.0 0.0 0.00 0.00 0.00 96 1019.6
20220703110752 77 103 0.0 0.0 0.00 0.00 0.00 96 1019.6
20220703110652 77 103 0.0 0.0 0.00 0.00 0.00 96 1019.6
20220703110551 77 103 0.0 0.0 0.00 0.00 0.00 96 1019.5
20220703110450 77 103 0.0 0.0 0.00 0.00 0.00 96 1019.5
20220703110352 77 103 0.0 0.0 0.00 0.00 0.00 96 1019.6
20220703110252 77 103 0.0 0.0 0.00 0.00 0.00 96 1019.6
20220703110151 77 103 0.0 0.0 0.00 0.00 0.00 96 1019.4
20220703110052 77 103 0.0 0.0 0.00 0.01 0.00 96 1019.5
20220703105955 77 103 0.0 0.0 0.00 0.01 0.00 96 1019.6
20220703105855 77 103 0.0 0.0 0.00 0.01 0.00 96 1019.6
20220703105751 77 103 0.0 0.0 0.00 0.01 0.00 96 1019.6
20220703105652 77 103 0.0 0.0 0.00 0.01 0.00 96 1019.6
20220703105552 77 103 0.0 0.0 0.00 0.01 0.00 96 1019.6
20220703105452 77 103 0.0 0.0 0.00 0.01 0.00 96 1019.6
20220703105350 77 103 0.0 0.0 0.00 0.01 0.00 96 1019.6
20220703105250 77 103 0.0 0.0 0.00 0.01 0.00 96 1019.6
20220703105150 77 103 0.0 0.0 0.00 0.01 0.00 96 1019.6
20220703105051 77 103 0.0 0.0 0.00 0.01 0.00 96 1019.6
20220703104951 77 103 0.0 0.0 0.00 0.01 0.00 96 1019.6
20220703104853 77 103 0.0 0.0 0.00 0.01 0.00 96 1019.6
20220703104754 77 103 0.0 0.0 0.00 0.01 0.00 96 1019.5
20220703104651 77 103 0.0 0.0 0.00 0.01 0.00 96 1019.5
20220703104551 77 103 0.0 0.0 0.00 0.01 0.00 96 1019.4
20220703104451 77 103 0.0 0.0 0.00 0.01 0.00 96 1019.4
20220703104350 77 103 0.0 0.0 0.00 0.01 0.00 96 1019.4
20220703104255 77 103 0.0 0.0 0.00 0.01 0.00 96 1019.4
20220703104154 77 103 0.0 0.0 0.00 0.01 0.00 96 1019.4
20220703104054 77 103 0.0 0.0 0.00 0.01 0.00 96 1019.4
20220703103951 77 103 0.0 0.0 0.00 0.01 0.00 95 1019.5
20220703103851 77 103 0.0 0.0 0.00 0.01 0.00 95 1019.5
20220703103751 77 103 0.0 0.0 0.00 0.01 0.00 95 1019.4
20220703103653 77 103 0.0 0.0 0.00 0.01 0.00 95 1019.5
20220703103551 77 103 0.0 0.0 0.00 0.01 0.00 96 1019.5
20220703103455 77 103 0.0 0.0 0.00 0.01 0.00 95 1019.4
20220703103350 77 103 0.0 0.0 0.00 0.01 0.00 95 1019.4
20220703103250 77 103 0.0 0.0 0.00 0.01 0.00 95 1019.3
20220703103150 77 103 0.0 0.0 0.00 0.01 0.00 95 1019.3
20220703103050 78 103 0.0 0.0 0.00 0.01 0.00 95 1019.3
20220703102953 78 103 0.0 0.0 0.00 0.01 0.00 95 1019.4
20220703102851 78 103 0.0 0.0 0.00 0.01 0.00 95 1019.4
20220703102754 78 103 0.0 0.0 0.00 0.01 0.00 95 1019.4
20220703102650 78 103 0.0 0.0 0.00 0.01 0.00 95 1019.4
20220703102555 78 103 0.0 0.0 0.00 0.01 0.00 95 1019.4
20220703102449 78 103 0.0 0.0 0.00 0.01 0.00 95 1019.4
20220703102349 78 103 0.0 0.0 0.00 0.01 0.00 95 1019.4
20220703102249 78 103 0.0 0.0 0.00 0.01 0.00 95 1019.3
20220703102149 78 103 0.0 0.0 0.00 0.01 0.00 95 1019.3
20220703102053 78 103 0.0 0.0 0.00 0.01 0.00 95 1019.4
20220703101950 78 103 0.0 0.0 0.00 0.01 0.00 95 1019.3
20220703101851 78 103 0.0 0.0 0.00 0.01 0.00 95 1019.3
20220703101752 78 103 0.0 0.0 0.00 0.01 0.00 95 1019.3
20220703101650 78 103 0.0 0.0 0.00 0.01 0.00 95 1019.3
20220703101554 78 103 0.0 0.0 0.00 0.01 0.00 95 1019.3
20220703101449 78 103 0.0 0.0 0.00 0.01 0.00 95 1019.2
20220703101351 78 103 0.0 0.0 0.00 0.01 0.00 95 1019.3
20220703101251 78 103 0.0 0.0 0.00 0.01 0.00 95 1019.3
20220703101149 78 103 0.0 0.0 0.00 0.01 0.00 95 1019.4
20220703101048 78 103 0.0 0.0 0.00 0.01 0.00 95 1019.3
20220703100943 78 103 0.0 0.0 0.00 0.01 0.00 95 1019.3
20220703100844 78 103 0.0 0.0 0.00 0.01 0.00 95 1019.3
20220703100739 78 103 0.0 0.0 0.00 0.01 0.00 95 1019.4
20220703100637 78 103 0.0 0.0 0.00 0.01 0.00 95 1019.4
20220703100533 78 103 0.0 0.0 0.00 0.01 0.00 95 1019.3
20220703100432 78 103 0.0 1.0 0.00 0.01 0.00 95 1019.3
20220703100336 78 103 0.0 1.0 0.00 0.01 0.00 95 1019.3
20220703100234 78 103 0.0 1.0 0.00 0.01 0.00 95 1019.2
20220703100127 78 103 0.0 1.0 0.00 0.01 0.00 95 1019.2
20220703100024 78 103 0.0 1.0 0.00 0.01 0.00 95 1019.3
20220703095922 78 103 0.0 1.0 0.00 0.01 0.00 95 1019.1
20220703095821 78 103 0.0 1.0 0.00 0.01 0.00 95 1019.2
20220703095717 78 103 0.0 1.0 0.00 0.01 0.00 95 1019.1
20220703095615 78 103 0.0 1.0 0.00 0.01 0.00 95 1019.2
20220703095513 78 103 0.0 0.0 0.00 0.01 0.00 95 1019.1
20220703095412 78 103 0.0 0.0 0.00 0.01 0.00 95 1019.1
20220703095307 78 103 0.0 0.0 0.00 0.01 0.00 95 1019.1
20220703095206 78 103 0.0 1.0 0.00 0.01 0.00 95 1019.1
20220703095104 78 103 0.0 2.0 0.00 0.01 0.00 95 1019.1
20220703095004 78 103 0.0 2.0 0.00 0.01 0.00 95 1019.1
20220703094902 78 103 0.0 2.0 0.00 0.01 0.00 95 1019.2
20220703094806 78 103 0.0 2.0 0.00 0.01 0.00 95 1019.2
20220703094704 78 103 0.0 2.0 0.00 0.01 0.00 95 1019.2
20220703094603 78 103 0.0 2.0 0.00 0.01 0.00 95 1019.1
20220703094506 78 103 0.0 2.0 0.00 0.01 0.00 95 1019.2
20220703094402 78 103 0.0 2.0 0.00 0.01 0.00 95 1019.2
20220703094303 78 103 0.0 2.0 0.00 0.01 0.00 95 1019.2
20220703094204 78 103 0.0 2.0 0.00 0.01 0.00 95 1019.2
20220703094103 78 151 0.0 0.0 0.00 0.01 0.00 95 1019.2
20220703094004 78 151 0.0 0.0 0.00 0.01 0.00 95 1019.3
20220703093902 78 151 0.0 0.0 0.00 0.01 0.00 95 1019.2
20220703093806 78 151 0.0 0.0 0.00 0.01 0.00 95 1019.2
20220703093705 78 151 0.0 0.0 0.00 0.01 0.00 95 1019.2
20220703093604 78 151 0.0 0.0 0.00 0.01 0.00 95 1019.1
20220703093502 78 151 0.0 0.0 0.00 0.01 0.00 95 1019.1
20220703093402 78 151 0.0 0.0 0.00 0.01 0.00 95 1019.1
20220703093303 78 151 0.0 0.0 0.00 0.01 0.00 95 1019.1
20220703093202 78 151 0.0 0.0 0.00 0.01 0.00 95 1019.1
20220703093103 78 151 0.0 0.0 0.00 0.01 0.00 94 1019.1
20220703093002 78 151 0.0 0.0 0.00 0.01 0.00 95 1019.1
20220703092901 78 151 0.0 0.0 0.00 0.01 0.00 95 1019.2
20220703092803 78 151 0.0 0.0 0.00 0.01 0.00 94 1019.2
20220703092702 78 151 0.0 0.0 0.00 0.01 0.00 94 1019.1
20220703092602 78 151 0.0 0.0 0.00 0.01 0.00 94 1019.2
20220703092503 78 151 0.0 0.0 0.00 0.01 0.00 95 1019.2
20220703092402 78 151 0.0 0.0 0.00 0.01 0.00 95 1019.1
20220703092303 78 151 0.0 0.0 0.00 0.01 0.00 94 1019.2
20220703092203 78 151 0.0 0.0 0.00 0.01 0.00 94 1019.2
20220703092103 78 151 0.0 0.0 0.00 0.01 0.00 94 1019.2
20220703092002 78 151 0.0 0.0 0.00 0.01 0.00 94 1019.2
20220703091902 78 151 0.0 0.0 0.00 0.01 0.00 94 1019.2
20220703091804 78 151 0.0 0.0 0.00 0.01 0.00 94 1019.2
20220703091703 78 151 0.0 0.0 0.00 0.01 0.00 94 1019.1
20220703091603 78 151 0.0 0.0 0.00 0.01 0.00 94 1019.2
20220703091503 78 151 0.0 0.0 0.00 0.01 0.00 94 1019.1
20220703091403 78 151 0.0 0.0 0.00 0.01 0.00 94 1019.2
20220703091303 78 151 0.0 0.0 0.00 0.01 0.00 94 1019.1
20220703091203 78 151 0.0 0.0 0.00 0.01 0.00 94 1019.1
20220703091102 78 151 0.0 0.0 0.00 0.01 0.00 94 1019.1
20220703091003 78 151 0.0 0.0 0.00 0.01 0.00 94 1019.1
20220703090906 78 151 0.0 0.0 0.00 0.02 0.00 94 1019.2
20220703090802 78 151 0.0 0.0 0.00 0.03 0.00 94 1019.1
20220703090704 78 151 0.0 0.0 0.00 0.04 0.00 94 1019.2
20220703090604 78 151 0.0 0.0 0.00 0.04 0.00 94 1019.1
20220703090503 78 151 0.0 0.0 0.00 0.04 0.00 94 1019.1
20220703090405 78 151 0.0 0.0 0.00 0.04 0.00 94 1019.2
20220703090302 79 151 0.0 0.0 0.00 0.04 0.00 94 1019.2
20220703090204 79 151 0.0 0.0 0.00 0.04 0.00 94 1019.2
20220703090101 79 151 0.0 0.0 0.00 0.04 0.00 94 1019.2
20220703090005 79 151 0.0 0.0 0.00 0.04 0.00 94 1019.2
20220703085906 79 151 0.0 0.0 0.00 0.04 0.00 94 1019.2
20220703085804 79 151 0.0 0.0 0.00 0.04 0.00 94 1019.3
20220703085704 79 151 0.0 0.0 0.00 0.04 0.00 93 1019.1
20220703085602 79 151 0.0 0.0 0.00 0.04 0.00 93 1019.2
20220703085505 79 151 0.0 0.0 0.00 0.04 0.00 94 1019.2
20220703085402 79 151 0.0 0.0 0.00 0.04 0.00 93 1019.3
20220703085304 79 151 0.0 0.0 0.00 0.04 0.00 94 1019.2
20220703085203 79 151 0.0 0.0 0.00 0.04 0.00 94 1019.2
20220703085105 79 151 0.0 0.0 0.00 0.04 0.00 94 1019.2
20220703085003 79 151 0.0 0.0 0.00 0.04 0.00 94 1019.2
20220703084902 79 151 0.0 0.0 0.00 0.04 0.00 94 1019.2
20220703084803 79 151 0.0 0.0 0.00 0.04 0.00 94 1019.2
20220703084702 79 151 0.0 0.0 0.00 0.04 0.00 94 1019.1
20220703084602 79 151 0.0 0.0 0.00 0.04 0.00 94 1019.2
20220703084504 79 151 0.0 0.0 0.00 0.04 0.00 94 1019.1
20220703084402 79 151 0.0 0.0 0.00 0.04 0.00 94 1019.1
20220703084303 79 151 0.0 0.0 0.00 0.04 0.00 94 1019.2
20220703084203 79 151 0.0 0.0 0.00 0.04 0.00 94 1019.2
20220703084102 79 151 0.0 0.0 0.00 0.04 0.00 94 1019.2
20220703084006 79 151 0.0 0.0 0.00 0.04 0.00 94 1019.1
20220703083902 79 151 0.0 0.0 0.00 0.04 0.00 94 1019.2
20220703083802 79 151 0.0 0.0 0.00 0.04 0.00 93 1019.3
20220703083703 79 151 0.0 0.0 0.00 0.04 0.00 93 1019.2
20220703083602 79 151 0.0 0.0 0.00 0.04 0.00 94 1019.1
20220703083502 79 151 0.0 0.0 0.00 0.04 0.00 93 1019.2
20220703083405 79 151 0.0 0.0 0.00 0.04 0.00 93 1019.2
20220703083306 79 151 0.0 0.0 0.00 0.04 0.00 93 1019.1
20220703083203 79 151 0.0 0.0 0.00 0.04 0.00 93 1019.2
20220703083102 79 151 0.0 0.0 0.00 0.04 0.00 93 1019.3
20220703083003 79 151 0.0 0.0 0.00 0.04 0.00 93 1019.3
20220703082902 79 151 0.0 0.0 0.00 0.04 0.00 94 1019.2
20220703082803 79 151 0.0 0.0 0.00 0.04 0.00 94 1019.2
20220703082702 79 151 0.0 0.0 0.00 0.04 0.00 93 1019.3
20220703082602 79 151 0.0 0.0 0.00 0.04 0.00 93 1019.3
20220703082503 79 151 0.0 0.0 0.00 0.04 0.00 93 1019.1
20220703082402 79 151 0.0 0.0 0.00 0.04 0.00 93 1019.1
20220703082303 79 151 0.0 0.0 0.00 0.04 0.00 93 1019.1
20220703082202 79 151 0.0 0.0 0.00 0.04 0.00 93 1019.1
20220703082104 79 151 0.0 0.0 0.00 0.04 0.00 93 1019.0
20220703082004 79 151 0.0 0.0 0.00 0.04 0.00 93 1019.1
20220703081902 79 151 0.0 0.0 0.00 0.04 0.00 93 1019.0
20220703081802 79 151 0.0 0.0 0.00 0.04 0.00 93 1019.1
20220703081702 79 151 0.0 0.0 0.00 0.04 0.00 93 1019.1
20220703081603 79 151 0.0 0.0 0.00 0.04 0.00 93 1019.2
20220703081503 79 151 0.0 0.0 0.00 0.04 0.00 93 1019.2
20220703081403 79 151 0.0 0.0 0.00 0.04 0.00 93 1019.1
20220703081303 79 151 0.0 0.0 0.00 0.04 0.00 93 1019.2
20220703081203 79 151 0.0 0.0 0.00 0.04 0.00 93 1019.2
20220703081105 79 151 0.0 0.0 0.00 0.04 0.00 93 1019.2
20220703081004 79 151 0.0 0.0 0.00 0.04 0.00 93 1019.1
20220703080904 79 151 0.0 0.0 0.00 0.04 0.00 93 1019.1
20220703080803 79 151 0.0 0.0 0.00 0.04 0.00 93 1019.1
20220703080702 79 151 0.0 0.0 0.00 0.04 0.00 93 1019.2
20220703080604 79 151 0.0 0.0 0.00 0.04 0.00 93 1019.2
20220703080503 79 151 0.0 0.0 0.00 0.04 0.00 93 1019.2
20220703080403 79 151 0.0 0.0 0.00 0.04 0.00 92 1019.2
20220703080302 79 151 0.0 0.0 0.00 0.04 0.00 92 1019.1
20220703080202 79 151 0.0 0.0 0.00 0.04 0.00 93 1019.0
20220703080104 79 151 0.0 1.0 0.00 0.04 0.00 93 1019.0
20220703080002 79 151 0.0 1.0 0.00 0.04 0.00 92 1019.1
20220703075903 79 151 0.0 1.0 0.00 0.04 0.00 92 1019.1
20220703075806 79 151 0.0 1.0 0.00 0.04 0.00 92 1019.0
20220703075703 79 151 0.0 1.0 0.00 0.04 0.00 93 1019.1
20220703075604 79 151 0.0 1.0 0.00 0.04 0.00 92 1019.0
20220703075503 79 151 0.0 1.0 0.00 0.04 0.00 92 1019.0
20220703075402 79 151 0.0 1.0 0.00 0.04 0.00 92 1019.0
20220703075306 79 151 0.0 1.0 0.00 0.04 0.00 92 1019.1
20220703075203 80 151 0.0 1.0 0.00 0.04 0.00 92 1019.1
20220703075104 80 151 0.0 0.0 0.00 0.04 0.00 92 1019.0
20220703075004 80 151 0.0 0.0 0.00 0.04 0.00 92 1019.1
20220703074903 80 151 0.0 1.0 0.00 0.04 0.00 92 1019.2
20220703074803 80 151 0.0 1.0 0.00 0.04 0.00 92 1019.1
20220703074703 80 151 0.0 1.0 0.00 0.04 0.00 92 1019.1
20220703074602 80 151 0.0 1.0 0.00 0.04 0.00 92 1019.1
20220703074503 80 151 0.0 1.0 0.00 0.04 0.00 91 1019.1
20220703074407 80 151 0.0 1.0 0.00 0.04 0.00 91 1019.1
20220703074302 80 151 0.0 1.0 0.00 0.04 0.00 91 1019.2
20220703074203 80 151 0.0 1.0 0.00 0.04 0.00 91 1019.2
20220703074102 80 151 0.0 1.0 0.00 0.04 0.00 91 1019.2
20220703074004 80 151 0.0 1.0 0.00 0.04 0.00 91 1019.1
20220703073902 80 151 0.0 1.0 0.00 0.04 0.00 91 1019.1
20220703073802 80 151 0.0 0.0 0.00 0.04 0.00 91 1019.1
20220703073702 80 151 0.0 0.0 0.00 0.04 0.00 91 1019.1
20220703073603 80 151 0.0 0.0 0.00 0.04 0.00 91 1019.1
20220703073503 80 151 0.0 0.0 0.00 0.04 0.00 91 1019.0
20220703073402 80 151 0.0 0.0 0.00 0.04 0.00 91 1019.0
20220703073306 80 151 0.0 0.0 0.00 0.04 0.00 91 1019.0
20220703073203 80 151 0.0 0.0 0.00 0.04 0.00 91 1019.0
20220703073104 80 151 0.0 0.0 0.00 0.04 0.00 91 1019.0
20220703073004 80 151 0.0 0.0 0.00 0.04 0.00 91 1019.1
20220703072854 80 151 0.0 0.0 0.00 0.04 0.00 91 1019.1
20220703072753 80 151 0.0 0.0 0.00 0.04 0.00 91 1019.1
20220703072651 80 151 0.0 0.0 0.00 0.04 0.00 91 1019.2
20220703072549 80 151 0.0 1.0 0.00 0.04 0.00 91 1019.1
20220703072448 80 151 0.0 1.0 0.00 0.04 0.00 91 1019.2
20220703072347 80 151 0.0 1.0 0.00 0.04 0.00 91 1019.1
20220703072250 80 151 0.0 1.0 0.00 0.04 0.00 90 1019.2
20220703072147 80 151 0.0 1.0 0.00 0.04 0.00 90 1019.1
20220703072046 80 151 0.0 1.0 0.00 0.04 0.00 90 1019.1
20220703071947 81 151 0.0 1.0 0.00 0.04 0.00 90 1019.1
20220703071846 81 151 0.0 1.0 0.00 0.04 0.00 90 1019.1
20220703071745 81 151 0.0 1.0 0.00 0.04 0.00 90 1019.1
20220703071647 81 151 0.0 1.0 0.00 0.04 0.00 90 1019.1
20220703071547 81 151 0.0 1.0 0.00 0.04 0.00 90 1019.2
20220703071447 81 151 0.0 1.0 0.00 0.04 0.00 90 1019.2
20220703071346 81 151 0.0 1.0 0.00 0.04 0.00 90 1019.2
20220703071245 81 151 0.0 1.0 0.00 0.04 0.00 90 1019.1
20220703071145 81 151 0.0 2.0 0.00 0.04 0.00 90 1019.1
20220703071045 81 151 0.0 2.0 0.00 0.04 0.00 90 1019.0
20220703070947 81 151 0.0 2.0 0.00 0.04 0.00 90 1019.0
20220703070845 81 151 0.0 2.0 0.00 0.04 0.00 90 1019.0
20220703070746 81 151 0.0 2.0 0.00 0.04 0.00 90 1019.0
20220703070645 81 151 0.0 2.0 0.00 0.04 0.00 90 1019.0
20220703070545 81 151 0.0 2.0 0.00 0.04 0.00 90 1019.0
20220703070446 81 151 0.0 2.0 0.00 0.04 0.00 90 1018.9
20220703070347 81 151 0.0 2.0 0.00 0.04 0.00 90 1019.0
20220703070246 81 151 1.0 2.0 0.00 0.04 0.00 90 1019.0
20220703070145 81 151 0.0 2.0 0.00 0.04 0.00 90 1019.1
20220703070046 81 151 0.0 2.0 0.00 0.04 0.00 90 1019.1
20220703065947 81 151 0.0 1.0 0.00 0.04 0.00 90 1019.1
20220703065847 81 151 0.0 1.0 0.00 0.04 0.00 90 1019.0
20220703065746 81 151 0.0 1.0 0.00 0.04 0.00 90 1019.0
20220703065646 81 151 0.0 1.0 0.00 0.04 0.00 90 1019.0
20220703065546 81 151 0.0 1.0 0.00 0.04 0.00 90 1019.0
20220703065446 81 151 0.0 1.0 0.00 0.04 0.00 90 1019.1
20220703065346 81 151 0.0 1.0 0.00 0.04 0.00 90 1019.0
20220703065244 81 151 0.0 1.0 0.00 0.04 0.00 90 1019.1
20220703065146 81 151 0.0 1.0 0.00 0.04 0.00 90 1019.0
20220703065045 81 151 0.0 1.0 0.00 0.04 0.00 90 1019.0
20220703064946 81 152 0.0 1.0 0.00 0.04 0.00 90 1019.0
20220703064849 81 152 0.0 1.0 0.00 0.04 0.00 90 1019.0
20220703064749 81 185 0.0 1.0 0.00 0.04 0.00 90 1019.0
20220703064645 81 185 0.0 1.0 0.00 0.04 0.00 90 1019.0
20220703064546 81 185 0.0 1.0 0.00 0.04 0.00 89 1019.0
20220703064446 81 185 0.0 1.0 0.00 0.04 0.00 90 1018.8
20220703064346 81 186 0.0 1.0 0.00 0.04 0.00 89 1018.9
20220703064249 81 34 0.0 1.0 0.00 0.04 0.00 89 1018.9
20220703064149 81 34 0.0 1.0 0.00 0.04 0.00 89 1018.9
20220703064044 81 34 0.0 2.0 0.00 0.04 0.00 89 1019.0
20220703063947 81 34 0.0 2.0 0.00 0.04 0.00 90 1018.9
20220703063845 81 102 0.0 2.0 0.00 0.04 0.00 89 1019.0
20220703063745 81 102 0.0 2.0 0.00 0.04 0.00 89 1018.9
20220703063649 81 102 0.0 2.0 0.00 0.04 0.00 89 1019.0
20220703063545 81 102 0.0 2.0 0.00 0.04 0.00 89 1019.0
20220703063448 81 102 0.0 2.0 0.00 0.04 0.00 89 1019.0
20220703063346 81 102 0.0 2.0 0.00 0.04 0.00 89 1018.9
20220703063246 81 102 0.0 2.0 0.00 0.04 0.00 89 1018.8
20220703063146 81 102 0.0 2.0 0.00 0.04 0.00 89 1018.9
20220703063047 81 100 0.0 2.0 0.00 0.04 0.00 89 1018.9
20220703062944 81 100 0.0 2.0 0.00 0.04 0.00 89 1018.8
20220703062845 81 96 0.0 2.0 0.00 0.04 0.00 89 1018.8
20220703062745 81 96 1.0 2.0 0.00 0.04 0.00 89 1018.8
20220703062647 81 99 0.0 2.0 0.00 0.04 0.00 89 1018.7
20220703062546 81 87 1.0 4.0 0.00 0.04 0.00 89 1018.7
20220703062444 81 76 1.0 4.0 0.00 0.04 0.00 89 1018.8
20220703062344 81 71 0.0 4.0 0.00 0.04 0.00 89 1018.8
20220703062246 81 71 1.0 4.0 0.00 0.04 0.00 89 1018.8
20220703062147 81 71 0.0 4.0 0.00 0.04 0.00 89 1018.8
20220703062045 81 71 0.0 4.0 0.00 0.04 0.00 89 1018.9
20220703061945 81 71 1.0 4.0 0.00 0.04 0.00 89 1018.8
20220703061844 81 71 1.0 4.0 0.00 0.04 0.00 89 1018.7
20220703061745 81 107 1.0 4.0 0.00 0.04 0.00 89 1018.7
20220703061645 81 106 1.0 4.0 0.00 0.04 0.00 89 1018.7
20220703061544 81 85 0.0 3.0 0.00 0.04 0.00 89 1018.7
20220703061445 81 10 0.0 3.0 0.00 0.04 0.00 89 1018.7
20220703061344 81 10 0.0 3.0 0.00 0.04 0.00 89 1018.7
20220703061245 81 10 0.0 3.0 0.00 0.04 0.00 89 1018.7
20220703061144 81 8 0.0 3.0 0.00 0.04 0.00 89 1018.6
20220703061049 82 8 1.0 3.0 0.00 0.04 0.00 89 1018.8
20220703060944 81 8 0.0 3.0 0.00 0.04 0.00 89 1018.8
20220703060846 81 8 1.0 3.0 0.00 0.04 0.00 89 1018.7
20220703060744 82 8 1.0 3.0 0.00 0.04 0.00 89 1018.7
20220703060645 82 111 0.0 3.0 0.00 0.04 0.00 89 1018.8
20220703060547 82 111 0.0 3.0 0.00 0.04 0.00 89 1018.8
20220703060445 82 111 1.0 3.0 0.00 0.04 0.00 89 1018.7
20220703060348 82 111 1.0 3.0 0.00 0.04 0.00 89 1018.8
20220703060245 82 99 0.0 2.0 0.00 0.04 0.00 89 1018.8
20220703060144 82 55 0.0 2.0 0.00 0.04 0.00 89 1018.8
20220703060045 82 55 1.0 2.0 0.00 0.04 0.00 88 1018.8
20220703055944 82 48 1.0 2.0 0.00 0.04 0.00 88 1018.8
20220703055847 82 48 0.0 2.0 0.00 0.04 0.00 88 1018.8
20220703055746 82 295 0.0 2.0 0.00 0.04 0.00 88 1018.8
20220703055648 82 298 0.0 3.0 0.00 0.04 0.00 88 1018.9
20220703055543 82 298 0.0 3.0 0.00 0.04 0.00 88 1018.9
20220703055444 82 293 0.0 3.0 0.00 0.04 0.00 88 1018.9
20220703055346 82 293 1.0 3.0 0.00 0.04 0.00 88 1018.9
20220703055243 82 295 0.0 3.0 0.00 0.04 0.00 88 1018.9
20220703055145 82 293 0.0 3.0 0.00 0.04 0.00 88 1018.7
20220703055043 82 293 1.0 3.0 0.00 0.04 0.00 88 1018.7
20220703054945 82 293 1.0 3.0 0.00 0.04 0.00 88 1018.7
20220703054843 82 281 1.0 3.0 0.00 0.04 0.00 88 1018.7
20220703054744 82 278 1.0 3.0 0.00 0.04 0.00 88 1018.7
20220703054648 82 83 0.0 3.0 0.00 0.04 0.00 88 1018.8
20220703054543 82 329 0.0 3.0 0.00 0.04 0.00 88 1018.7
20220703054444 82 329 0.0 3.0 0.00 0.04 0.00 88 1018.7
20220703054344 82 329 0.0 3.0 0.00 0.04 0.00 88 1018.9
20220703054245 82 329 0.0 4.0 0.00 0.04 0.00 88 1018.9
20220703054144 82 329 1.0 4.0 0.00 0.04 0.00 88 1018.9
20220703054045 82 262 1.0 4.0 0.00 0.04 0.00 88 1018.9
20220703053946 82 182 1.0 4.0 0.00 0.04 0.00 88 1018.8
20220703053843 82 182 1.0 4.0 0.00 0.04 0.00 88 1018.9
20220703053744 82 217 1.0 4.0 0.00 0.04 0.00 88 1018.8
20220703053644 82 345 1.0 4.0 0.00 0.04 0.00 88 1018.8
20220703053547 82 210 1.0 4.0 0.00 0.04 0.00 88 1018.8
20220703053443 82 210 2.0 4.0 0.00 0.04 0.00 88 1018.8
20220703053345 82 134 1.0 4.0 0.00 0.04 0.00 88 1018.8
20220703053244 82 244 1.0 2.0 0.00 0.04 0.00 88 1018.8
20220703053143 82 99 1.0 2.0 0.00 0.04 0.00 88 1018.7
20220703053044 82 97 1.0 2.0 0.00 0.04 0.00 88 1018.9
20220703052945 82 97 1.0 2.0 0.00 0.04 0.00 88 1018.8
20220703052843 82 164 0.0 2.0 0.00 0.04 0.00 88 1018.8
20220703052743 82 164 0.0 3.0 0.00 0.04 0.00 88 1018.8
20220703052646 82 127 0.0 3.0 0.00 0.04 0.00 88 1018.8
20220703052544 82 127 1.0 3.0 0.00 0.04 0.00 88 1018.8
20220703052447 82 168 1.0 3.0 0.00 0.04 0.00 88 1018.7
20220703052343 82 224 1.0 3.0 0.00 0.04 0.00 88 1018.6
20220703052244 82 165 0.0 3.0 0.00 0.04 0.00 88 1018.6
20220703052144 82 165 1.0 3.0 0.00 0.04 0.00 88 1018.6
20220703052045 82 165 1.0 3.0 0.00 0.04 0.00 88 1018.6
20220703051944 82 185 1.0 3.0 0.00 0.04 0.00 88 1018.6
20220703051847 82 185 2.0 3.0 0.00 0.04 0.00 88 1018.6
20220703051743 82 151 1.0 3.0 0.00 0.04 0.00 88 1018.7
20220703051643 82 223 1.0 3.0 0.00 0.04 0.00 88 1018.7
20220703051547 82 152 0.0 3.0 0.00 0.04 0.00 87 1018.7
20220703051443 82 116 0.0 3.0 0.00 0.04 0.00 88 1018.7
20220703051343 82 116 1.0 3.0 0.00 0.04 0.00 87 1018.7
20220703051243 82 127 0.0 3.0 0.00 0.04 0.00 87 1018.7
20220703051143 82 127 0.0 3.0 0.00 0.04 0.00 88 1018.8
20220703051043 82 127 1.0 3.0 0.00 0.04 0.00 88 1018.7
20220703050944 82 127 2.0 3.0 0.00 0.04 0.00 88 1018.8
20220703050844 82 355 1.0 4.0 0.00 0.04 0.00 88 1018.8
20220703050743 82 131 1.0 4.0 0.00 0.04 0.00 88 1018.7
20220703050645 82 196 1.0 4.0 0.00 0.04 0.00 88 1018.7
20220703050542 82 90 1.0 4.0 0.00 0.04 0.00 87 1018.7
20220703050443 82 302 1.0 4.0 0.00 0.04 0.00 87 1018.7
20220703050343 82 314 1.0 4.0 0.00 0.04 0.00 87 1018.7
20220703050243 82 185 1.0 4.0 0.00 0.04 0.00 87 1018.7
20220703050144 82 213 1.0 4.0 0.00 0.04 0.00 87 1018.7
20220703050042 82 213 2.0 4.0 0.00 0.04 0.00 87 1018.7
20220703045942 82 220 2.0 4.0 0.00 0.04 0.04 87 1018.7
20220703045843 82 169 1.0 4.0 0.00 0.04 0.04 87 1018.7
20220703045746 82 214 1.0 4.0 0.00 0.04 0.04 87 1018.7
20220703045643 82 172 1.0 4.0 0.00 0.04 0.04 87 1018.7
20220703045542 82 200 2.0 7.0 0.00 0.04 0.04 87 1018.6
20220703045444 82 313 2.0 7.0 0.00 0.04 0.04 87 1018.6
20220703045345 82 62 1.0 7.0 0.00 0.04 0.04 87 1018.6
20220703045243 82 192 1.0 7.0 0.00 0.04 0.04 87 1018.6
20220703045143 82 192 1.0 7.0 0.00 0.04 0.04 87 1018.7
20220703045042 82 71 1.0 7.0 0.00 0.04 0.04 87 1018.7
20220703044944 82 209 1.0 7.0 0.00 0.04 0.04 87 1018.7
20220703044843 82 182 2.0 7.0 0.00 0.04 0.04 87 1018.7
20220703044746 82 228 3.0 7.0 0.00 0.04 0.04 87 1018.7
20220703044642 82 106 2.0 7.0 0.00 0.04 0.04 87 1018.6
20220703044542 82 193 1.0 3.0 0.00 0.04 0.04 87 1018.6
20220703044442 83 144 1.0 3.0 0.00 0.04 0.04 87 1018.7
20220703044344 83 157 1.0 3.0 0.00 0.04 0.04 87 1018.7
20220703044243 83 165 1.0 3.0 0.00 0.04 0.04 87 1018.7
20220703044143 83 66 1.0 3.0 0.00 0.04 0.04 87 1018.7
20220703044043 83 61 1.0 3.0 0.00 0.04 0.04 87 1018.7
20220703043941 83 61 1.0 5.0 0.00 0.04 0.04 87 1018.7
20220703043844 83 71 1.0 5.0 0.00 0.04 0.04 87 1018.7
20220703043743 83 109 1.0 5.0 0.00 0.04 0.04 87 1018.7
20220703043643 83 25 1.0 5.0 0.00 0.04 0.04 87 1018.7
20220703043542 83 25 1.0 5.0 0.00 0.04 0.04 87 1018.7
20220703043441 83 25 1.0 5.0 0.00 0.04 0.04 87 1018.6
20220703043343 83 21 1.0 5.0 0.00 0.04 0.04 87 1018.6
20220703043242 83 1 1.0 5.0 0.00 0.04 0.04 87 1018.5
20220703043143 83 228 2.0 5.0 0.00 0.04 0.04 87 1018.4
20220703043043 83 155 2.0 5.0 0.00 0.04 0.04 87 1018.4
20220703042947 83 207 1.0 5.0 0.00 0.04 0.04 87 1018.4
20220703042842 83 171 1.0 5.0 0.00 0.04 0.04 87 1018.4
20220703042742 83 123 1.0 5.0 0.00 0.04 0.04 87 1018.4
20220703042644 83 151 1.0 5.0 0.00 0.04 0.04 87 1018.4
20220703042542 83 151 2.0 5.0 0.00 0.04 0.04 87 1018.5
20220703042442 83 135 1.0 5.0 0.00 0.04 0.04 87 1018.5
20220703042342 83 164 2.0 5.0 0.00 0.04 0.04 87 1018.5
20220703042242 83 164 2.0 5.0 0.00 0.04 0.04 87 1018.4
20220703042143 83 118 1.0 5.0 0.00 0.04 0.04 87 1018.5
20220703042042 83 120 2.0 5.0 0.00 0.04 0.04 87 1018.4
20220703041941 83 192 2.0 5.0 0.00 0.04 0.04 86 1018.4
20220703041841 83 147 3.0 5.0 0.00 0.04 0.04 86 1018.3
20220703041741 83 128 2.0 5.0 0.00 0.04 0.04 86 1018.3
20220703041643 83 76 1.0 5.0 0.00 0.04 0.04 87 1018.3
20220703041542 83 80 1.0 5.0 0.00 0.04 0.04 87 1018.3
20220703041444 83 348 1.0 5.0 0.00 0.04 0.04 86 1018.3
20220703041342 83 0 1.0 5.0 0.00 0.04 0.04 86 1018.2
20220703041242 83 296 1.0 5.0 0.00 0.04 0.04 86 1018.3
20220703041142 83 296 1.0 5.0 0.00 0.04 0.04 86 1018.2
20220703041042 83 255 2.0 5.0 0.00 0.04 0.04 86 1018.3
20220703040943 83 197 2.0 9.0 0.00 0.04 0.04 86 1018.2
20220703040842 83 141 1.0 9.0 0.00 0.04 0.04 86 1018.2
20220703040741 83 141 1.0 9.0 0.00 0.04 0.04 86 1018.2
20220703040641 83 110 1.0 9.0 0.00 0.04 0.04 86 1018.2
20220703040541 83 113 1.0 9.0 0.00 0.04 0.04 86 1018.2
20220703040441 83 113 2.0 9.0 0.00 0.04 0.04 86 1018.2
20220703040341 83 99 1.0 9.0 0.00 0.04 0.04 86 1018.1
20220703040241 83 202 1.0 9.0 0.00 0.04 0.04 86 1017.9
20220703040141 83 264 2.0 9.0 0.00 0.04 0.04 86 1018.1
20220703040043 83 206 2.0 9.0 0.00 0.04 0.04 86 1018.0
20220703035941 83 0 1.0 4.0 0.00 0.04 0.04 86 1018.0
20220703035842 83 142 1.0 4.0 0.00 0.04 0.04 86 1018.0
20220703035743 83 144 2.0 5.0 0.00 0.04 0.04 86 1018.0
20220703035641 83 128 1.0 5.0 0.00 0.04 0.04 86 1018.0
20220703035541 83 130 1.0 5.0 0.00 0.04 0.04 86 1018.1
20220703035445 83 23 1.0 5.0 0.00 0.04 0.04 86 1018.0
20220703035341 83 45 2.0 5.0 0.00 0.04 0.04 86 1018.1